CW9107 Weather Reports


time (UTC)temp
C
wind
direction
speed
KPH
gust
KPH
rain 1hr
cm
rain 24hr
cm
rain mn
cm
humidity
%
barometer
mb
20260506193403 12 282 3.2 9.7 0.00 0.00 0.00 83 1020.6
20260506193303 12 279 3.2 9.7 0.00 0.00 0.00 83 1020.7
20260506193203 12 278 3.2 9.7 0.00 0.00 0.00 83 1020.6
20260506193103 12 279 3.2 9.7 0.00 0.00 0.00 84 1020.6
20260506193003 12 280 3.2 9.7 0.00 0.00 0.00 84 1020.7
20260506192903 12 281 3.2 9.7 0.00 0.00 0.00 84 1020.6
20260506192703 12 282 4.8 9.7 0.00 0.00 0.00 83 1020.6
20260506192603 12 282 3.2 9.7 0.00 0.00 0.00 83 1020.6
20260506192503 12 281 3.2 9.7 0.00 0.00 0.00 83 1020.6
20260506192403 12 279 3.2 9.7 0.00 0.00 0.00 83 1020.5
20260506192218 12 280 3.2 8.0 0.00 0.00 0.00 84 1020.5
20260506192203 12 281 3.2 8.0 0.00 0.00 0.00 84 1020.5
20260506192103 12 280 3.2 8.0 0.00 0.00 0.00 84 1020.5
20260506191903 12 278 3.2 6.4 0.00 0.00 0.00 84 1020.5
20260506191803 12 277 3.2 6.4 0.00 0.00 0.00 84 1020.5
20260506191703 12 278 3.2 6.4 0.00 0.00 0.00 84 1020.4
20260506191603 12 278 3.2 6.4 0.00 0.00 0.00 84 1020.5
20260506191503 12 278 3.2 6.4 0.00 0.00 0.00 84 1020.4
20260506191417 12 279 3.2 6.4 0.00 0.00 0.00 84 1020.4
20260506191403 12 280 3.2 6.4 0.00 0.00 0.00 84 1020.4
20260506191303 12 279 3.2 6.4 0.00 0.00 0.00 84 1020.4
20260506191218 12 279 3.2 6.4 0.00 0.00 0.00 84 1020.4
20260506190903 12 277 3.2 6.4 0.00 0.00 0.00 84 1020.5
20260506190803 12 278 3.2 6.4 0.00 0.00 0.00 84 1020.4
20260506190717 12 278 3.2 6.4 0.00 0.00 0.00 84 1020.3
20260506190703 12 280 3.2 6.4 0.00 0.00 0.00 84 1020.3
20260506190603 12 282 3.2 6.4 0.00 0.00 0.00 84 1020.4
20260506190417 12 286 3.2 6.4 0.00 0.00 0.00 84 1020.4
20260506190403 12 285 3.2 6.4 0.00 0.00 0.00 84 1020.3
20260506190303 12 286 3.2 6.4 0.00 0.00 0.00 84 1020.4
20260506190006 12 292 3.2 6.4 0.00 0.00 0.00 85 1020.3
20260506185903 12 294 3.2 6.4 0.00 0.00 0.00 85 1020.3
20260506185803 12 296 3.2 6.4 0.00 0.00 0.00 85 1020.4
20260506185705 12 294 3.2 6.4 0.00 0.00 0.00 85 1020.4
20260506185617 12 294 3.2 6.4 0.00 0.00 0.00 85 1020.4
20260506185604 12 294 3.2 6.4 0.00 0.00 0.00 85 1020.4
20260506185503 12 294 3.2 6.4 0.00 0.00 0.00 85 1020.3
20260506185306 12 299 3.2 4.8 0.00 0.00 0.00 85 1020.3
20260506185204 12 301 3.2 4.8 0.00 0.00 0.00 85 1020.3
20260506185103 12 301 3.2 4.8 0.00 0.00 0.00 85 1020.2
20260506185003 12 296 3.2 4.8 0.00 0.00 0.00 85 1020.2
20260506184903 12 293 3.2 4.8 0.00 0.00 0.00 85 1020.2
20260506184803 12 289 3.2 4.8 0.00 0.00 0.00 86 1020.2
20260506184703 12 290 3.2 4.8 0.00 0.00 0.00 86 1020.2
20260506184603 12 286 3.2 4.8 0.00 0.00 0.00 86 1020.2
20260506184503 12 277 3.2 4.8 0.00 0.00 0.00 86 1020.2
20260506184404 12 272 3.2 4.8 0.00 0.00 0.00 85 1020.3
20260506184303 12 269 3.2 4.8 0.00 0.00 0.00 85 1020.1
20260506184204 12 267 3.2 4.8 0.00 0.00 0.00 85 1020.2
20260506184116 12 268 3.2 4.8 0.00 0.00 0.00 85 1020.1
20260506184103 12 268 3.2 4.8 0.00 0.00 0.00 85 1020.2
20260506184003 12 270 3.2 4.8 0.00 0.00 0.00 85 1020.2
20260506183818 12 275 3.2 4.8 0.00 0.00 0.00 85 1020.3
20260506183803 12 277 3.2 4.8 0.00 0.00 0.00 85 1020.3
20260506183704 12 280 3.2 4.8 0.00 0.00 0.00 86 1020.3
20260506183503 12 284 3.2 4.8 0.00 0.00 0.00 86 1020.2
20260506183403 12 291 3.2 4.8 0.00 0.00 0.00 86 1020.3
20260506183303 12 296 3.2 4.8 0.00 0.00 0.00 86 1020.2
20260506183203 12 300 3.2 4.8 0.00 0.00 0.00 86 1020.2
20260506183103 12 299 3.2 4.8 0.00 0.00 0.00 86 1020.2
20260506183003 12 298 3.2 4.8 0.00 0.00 0.00 86 1020.1
20260506182903 12 297 3.2 4.8 0.00 0.00 0.00 86 1020.1
20260506182818 11 294 3.2 4.8 0.00 0.00 0.00 86 1020.1
20260506182803 12 293 3.2 4.8 0.00 0.00 0.00 86 1020.1
20260506182704 11 290 3.2 6.4 0.00 0.00 0.00 86 1020.1
20260506182503 11 289 3.2 6.4 0.00 0.00 0.00 86 1020.1
20260506182403 11 285 3.2 6.4 0.00 0.00 0.00 86 1020.1
20260506182306 11 282 3.2 6.4 0.00 0.00 0.00 86 1020.1
20260506182203 11 279 3.2 6.4 0.00 0.00 0.00 86 1020.1
20260506182103 11 280 3.2 6.4 0.00 0.00 0.00 86 1020.1
20260506182003 11 280 3.2 6.4 0.00 0.00 0.00 86 1020.1
20260506181803 11 281 3.2 6.4 0.00 0.00 0.00 86 1020.1
20260506181717 11 282 3.2 6.4 0.00 0.00 0.00 86 1020.1
20260506181703 11 282 3.2 6.4 0.00 0.00 0.00 86 1020.0
20260506181603 11 282 3.2 6.4 0.00 0.00 0.00 86 1020.1
20260506181403 11 282 3.2 6.4 0.00 0.00 0.00 86 1020.0
20260506181303 11 282 3.2 6.4 0.00 0.00 0.00 86 1020.0
20260506181203 11 282 3.2 6.4 0.00 0.00 0.00 86 1020.0
20260506181104 11 281 3.2 6.4 0.00 0.00 0.00 86 1020.0
20260506181003 11 283 3.2 6.4 0.00 0.00 0.00 86 1020.0
20260506180903 11 285 3.2 6.4 0.00 0.00 0.00 86 1020.0
20260506180803 11 286 3.2 6.4 0.00 0.00 0.00 86 1020.0
20260506180716 11 284 3.2 6.4 0.00 0.00 0.00 86 1020.0
20260506180703 11 285 3.2 6.4 0.00 0.00 0.00 86 1020.0
20260506180603 11 284 3.2 6.4 0.00 0.00 0.00 86 1020.0
20260506180403 11 285 3.2 6.4 0.00 0.00 0.00 86 1020.0
20260506180303 11 286 3.2 6.4 0.00 0.00 0.00 86 1020.0
20260506180203 11 290 3.2 6.4 0.00 0.00 0.00 86 1020.0
20260506180103 11 289 3.2 6.4 0.00 0.00 0.00 86 1020.0
20260506180006 11 288 3.2 6.4 0.00 0.00 0.00 86 1019.9
20260506175903 11 286 3.2 6.4 0.00 0.00 0.00 86 1020.0
20260506175803 11 285 3.2 4.8 0.00 0.00 0.00 86 1020.0
20260506175703 11 285 3.2 4.8 0.00 0.00 0.00 86 1020.0
20260506175603 11 286 3.2 4.8 0.00 0.00 0.00 86 1020.0
20260506175404 11 286 3.2 4.8 0.00 0.00 0.00 86 1020.0
20260506175306 11 285 3.2 4.8 0.00 0.00 0.00 86 1020.0
20260506175218 11 282 3.2 4.8 0.00 0.00 0.00 86 1020.0
20260506175204 11 282 3.2 4.8 0.00 0.00 0.00 86 1020.0
20260506175118 11 282 3.2 4.8 0.00 0.00 0.00 86 1020.1
20260506175103 11 281 3.2 4.8 0.00 0.00 0.00 86 1020.1
20260506174805 11 279 3.2 6.4 0.00 0.00 0.00 86 1020.1
20260506174703 11 279 3.2 6.4 0.00 0.00 0.00 86 1020.1
20260506174603 11 280 3.2 6.4 0.00 0.00 0.00 86 1020.1
20260506174503 11 282 3.2 6.4 0.00 0.00 0.00 86 1020.1
20260506174403 11 282 3.2 6.4 0.00 0.00 0.00 86 1020.1
20260506174303 11 283 3.2 6.4 0.00 0.00 0.00 86 1020.1
20260506174204 11 283 3.2 6.4 0.00 0.00 0.00 86 1020.1
20260506174103 11 285 3.2 6.4 0.00 0.00 0.00 86 1020.1
20260506174003 11 291 3.2 6.4 0.00 0.00 0.00 86 1020.1
20260506173903 11 293 3.2 6.4 0.00 0.00 0.00 86 1020.1
20260506173804 11 296 3.2 6.4 0.00 0.00 0.00 86 1020.1
20260506173703 11 295 3.2 6.4 0.00 0.00 0.00 86 1020.1
20260506173617 11 292 3.2 6.4 0.00 0.00 0.00 86 1020.1
20260506173603 11 292 3.2 6.4 0.00 0.00 0.00 86 1020.0
20260506173503 11 289 3.2 4.8 0.00 0.00 0.00 86 1020.1
20260506173303 11 292 3.2 4.8 0.00 0.00 0.00 86 1020.0
20260506173203 11 292 3.2 4.8 0.00 0.00 0.00 86 1020.2
20260506173103 11 290 3.2 4.8 0.00 0.00 0.00 86 1020.1
20260506173004 11 285 3.2 4.8 0.00 0.00 0.00 86 1020.1
20260506172919 11 283 3.2 4.8 0.00 0.00 0.00 86 1020.2
20260506172903 11 283 3.2 4.8 0.00 0.00 0.00 86 1020.2
20260506172803 11 280 3.2 4.8 0.00 0.00 0.00 86 1020.1
20260506172605 11 283 3.2 4.8 0.00 0.00 0.00 86 1020.2
20260506172503 11 284 3.2 4.8 0.00 0.00 0.00 86 1020.3
20260506172403 11 282 3.2 4.8 0.00 0.00 0.00 86 1020.2
20260506172306 11 281 3.2 4.8 0.00 0.00 0.00 86 1020.2
20260506172203 11 281 3.2 4.8 0.00 0.00 0.00 85 1020.0
20260506172103 11 282 3.2 4.8 0.00 0.00 0.00 85 1020.1
20260506172003 11 283 3.2 4.8 0.00 0.00 0.00 85 1020.1
20260506171903 11 285 1.6 4.8 0.00 0.00 0.00 85 1020.1
20260506171804 11 288 1.6 4.8 0.00 0.00 0.00 85 1020.0
20260506171703 11 289 1.6 4.8 0.00 0.00 0.00 85 1020.1
20260506171604 11 287 1.6 4.8 0.00 0.00 0.00 85 1020.2
20260506171504 11 284 1.6 4.8 0.00 0.00 0.00 85 1020.0
20260506171403 11 286 1.6 4.8 0.00 0.00 0.00 85 1020.0
20260506171303 11 289 1.6 4.8 0.00 0.00 0.00 85 1020.0
20260506171203 11 295 1.6 4.8 0.00 0.00 0.00 85 1020.1
20260506171104 11 298 1.6 4.8 0.00 0.00 0.00 85 1020.1
20260506171003 11 301 1.6 4.8 0.00 0.00 0.00 85 1020.0
20260506170903 11 298 1.6 4.8 0.00 0.00 0.00 85 1020.0
20260506170803 11 295 1.6 4.8 0.00 0.00 0.00 85 1020.0
20260506170703 11 292 1.6 4.8 0.00 0.00 0.00 85 1019.9
20260506170603 11 292 1.6 4.8 0.00 0.00 0.00 85 1019.9
20260506170503 11 294 1.6 4.8 0.00 0.00 0.00 85 1019.9
20260506170404 11 292 1.6 4.8 0.00 0.00 0.00 85 1020.0
20260506170303 11 289 1.6 4.8 0.00 0.00 0.00 85 1020.0
20260506170204 11 285 1.6 4.8 0.00 0.00 0.00 85 1020.0
20260506170103 11 282 1.6 4.8 0.00 0.00 0.00 85 1020.0
20260506170019 11 279 1.6 4.8 0.00 0.00 0.00 85 1019.9
20260506170003 11 277 1.6 4.8 0.00 0.00 0.00 85 1019.9
20260506165903 11 278 1.6 4.8 0.00 0.00 0.00 85 1019.9
20260506165703 11 281 1.6 4.8 0.00 0.00 0.00 85 1019.9
20260506165604 11 281 1.6 4.8 0.00 0.00 0.00 85 1019.9
20260506165503 11 281 1.6 4.8 0.00 0.00 0.00 85 1019.9
20260506165404 11 281 1.6 4.8 0.00 0.00 0.00 85 1019.7
20260506165305 11 282 1.6 4.8 0.00 0.00 0.00 85 1019.9
20260506165203 11 283 1.6 4.8 0.00 0.00 0.00 85 1019.8
20260506165103 11 286 1.6 4.8 0.00 0.00 0.00 84 1019.9
20260506165005 11 288 1.6 4.8 0.00 0.00 0.00 84 1019.8
20260506164903 11 288 1.6 4.8 0.00 0.00 0.00 84 1019.8
20260506164804 11 289 1.6 4.8 0.00 0.00 0.00 84 1019.7
20260506164703 11 288 1.6 4.8 0.00 0.00 0.00 84 1019.8
20260506164603 11 289 1.6 4.8 0.00 0.00 0.00 85 1019.7
20260506164503 11 291 1.6 4.8 0.00 0.00 0.00 85 1019.7
20260506164403 11 291 1.6 3.2 0.00 0.00 0.00 85 1019.7
20260506164303 11 291 1.6 3.2 0.00 0.00 0.00 84 1019.8
20260506164203 11 292 1.6 3.2 0.00 0.00 0.00 84 1019.8
20260506164003 11 294 1.6 3.2 0.00 0.00 0.00 84 1019.8
20260506163917 11 296 1.6 3.2 0.00 0.00 0.00 84 1019.8
20260506163903 11 296 1.6 3.2 0.00 0.00 0.00 84 1019.7
20260506163817 11 299 1.6 3.2 0.00 0.00 0.00 84 1019.8
20260506163803 11 300 1.6 3.2 0.00 0.00 0.00 84 1019.8
20260506163503 11 306 1.6 4.8 0.00 0.00 0.00 84 1019.7
20260506163404 11 309 1.6 4.8 0.00 0.00 0.00 84 1019.7
20260506163304 11 309 1.6 4.8 0.00 0.00 0.00 84 1019.7
20260506163203 11 309 1.6 4.8 0.00 0.00 0.00 84 1019.7
20260506163104 11 307 1.6 4.8 0.00 0.00 0.00 84 1019.6
20260506163003 11 305 1.6 4.8 0.00 0.00 0.00 84 1019.7
20260506162904 11 304 1.6 4.8 0.00 0.00 0.00 84 1019.8
20260506162803 11 302 1.6 4.8 0.00 0.00 0.00 84 1019.7
20260506162703 11 301 1.6 4.8 0.00 0.00 0.00 84 1019.7
20260506162603 11 302 1.6 4.8 0.00 0.00 0.00 84 1019.7
20260506162504 11 304 1.6 4.8 0.00 0.00 0.00 84 1019.7
20260506162403 11 303 1.6 3.2 0.00 0.00 0.00 84 1019.7
20260506162306 11 305 1.6 3.2 0.00 0.00 0.00 84 1019.7
20260506162203 11 307 1.6 3.2 0.00 0.00 0.00 84 1019.7
20260506162103 11 309 1.6 3.2 0.00 0.00 0.00 84 1019.7
20260506162004 11 312 1.6 3.2 0.00 0.00 0.00 84 1019.7
20260506161903 11 314 1.6 3.2 0.00 0.00 0.00 84 1019.7
20260506161804 11 313 1.6 3.2 0.00 0.00 0.00 84 1019.7
20260506161703 11 311 1.6 3.2 0.00 0.00 0.00 84 1019.7
20260506161604 11 310 1.6 3.2 0.00 0.00 0.00 84 1019.7
20260506161503 11 307 1.6 6.4 0.00 0.00 0.00 84 1019.7
20260506161404 11 309 1.6 6.4 0.00 0.00 0.00 84 1019.7
20260506161303 11 310 1.6 6.4 0.00 0.00 0.00 83 1019.7
20260506161204 11 312 1.6 6.4 0.00 0.00 0.00 83 1019.7
20260506161103 11 313 1.6 6.4 0.00 0.00 0.00 83 1019.7
20260506161003 11 314 1.6 6.4 0.00 0.00 0.00 83 1019.7
20260506160904 11 314 1.6 6.4 0.00 0.00 0.00 83 1019.7
20260506160803 11 318 1.6 6.4 0.00 0.00 0.00 83 1019.6
20260506160704 11 322 1.6 6.4 0.00 0.00 0.00 83 1019.6
20260506160619 11 323 1.6 6.4 0.00 0.00 0.00 83 1019.7
20260506160603 11 323 1.6 6.4 0.00 0.00 0.00 83 1019.6
20260506160504 11 325 1.6 4.8 0.00 0.00 0.00 83 1019.7
20260506160304 11 319 1.6 4.8 0.00 0.00 0.00 83 1019.7
20260506160203 11 314 1.6 6.4 0.00 0.00 0.00 83 1019.7
20260506160006 11 302 3.2 6.4 0.00 0.00 0.00 83 1019.6
20260506155904 11 296 3.2 6.4 0.00 0.00 0.00 83 1019.8
20260506155803 11 294 3.2 6.4 0.00 0.00 0.00 83 1019.6
20260506155704 11 290 3.2 6.4 0.00 0.00 0.00 83 1019.6
20260506155603 11 286 3.2 6.4 0.00 0.00 0.00 83 1019.6
20260506155517 11 283 3.2 6.4 0.00 0.00 0.00 83 1019.6
20260506155504 11 283 3.2 6.4 0.00 0.00 0.00 83 1019.6
20260506155217 11 278 3.2 6.4 0.00 0.00 0.00 82 1019.6
20260506155204 11 279 3.2 6.4 0.00 0.00 0.00 82 1019.6
20260506155104 11 279 3.2 6.4 0.00 0.00 0.00 82 1019.6
20260506154903 11 282 3.2 6.4 0.00 0.00 0.00 82 1019.6
20260506154803 11 283 3.2 6.4 0.00 0.00 0.00 82 1019.6
20260506154703 11 284 1.6 6.4 0.00 0.00 0.00 82 1019.6
20260506154603 11 286 1.6 6.4 0.00 0.00 0.00 82 1019.6
20260506154517 11 290 1.6 4.8 0.00 0.00 0.00 82 1019.6
20260506154503 11 290 1.6 4.8 0.00 0.00 0.00 82 1019.5
20260506154403 11 291 1.6 4.8 0.00 0.00 0.00 82 1019.6
20260506154318 11 294 1.6 4.8 0.00 0.00 0.00 82 1019.6
20260506154204 11 297 1.6 4.8 0.00 0.00 0.00 82 1019.6
20260506154004 11 306 1.6 4.8 0.00 0.00 0.00 81 1019.6
20260506153903 11 305 1.6 4.8 0.00 0.00 0.00 81 1019.6
20260506153803 11 304 1.6 4.8 0.00 0.00 0.00 81 1019.5
20260506153704 11 303 1.6 4.8 0.00 0.00 0.00 81 1019.5
20260506153503 11 300 1.6 4.8 0.00 0.00 0.00 81 1019.6
20260506153403 11 300 1.6 4.8 0.00 0.00 0.00 81 1019.5
20260506153304 11 299 1.6 4.8 0.00 0.00 0.00 81 1019.6
20260506153203 11 300 1.6 4.8 0.00 0.00 0.00 81 1019.6
20260506153117 11 299 1.6 4.8 0.00 0.00 0.00 81 1019.6
20260506153103 11 298 1.6 4.8 0.00 0.00 0.00 81 1019.6
20260506153003 11 294 1.6 3.2 0.00 0.00 0.00 81 1019.6
20260506152917 11 292 1.6 3.2 0.00 0.00 0.00 81 1019.6
20260506152804 11 288 1.6 3.2 0.00 0.00 0.00 81 1019.5
20260506152604 11 284 1.6 1.6 0.00 0.00 0.00 81 1019.5
20260506152503 11 285 1.6 3.2 0.00 0.00 0.00 81 1019.5
20260506152404 11 287 1.6 3.2 0.00 0.00 0.00 81 1019.6
20260506152305 11 288 1.6 6.4 0.00 0.00 0.00 81 1019.5
20260506152205 11 287 1.6 6.4 0.00 0.00 0.00 81 1019.5
20260506152103 11 285 1.6 6.4 0.00 0.00 0.00 81 1019.6
20260506151903 11 283 1.6 6.4 0.00 0.00 0.00 81 1019.4
20260506151805 11 282 1.6 6.4 0.00 0.00 0.00 81 1019.6
20260506151704 11 281 1.6 6.4 0.00 0.00 0.00 81 1019.5
20260506151603 11 280 1.6 6.4 0.00 0.00 0.00 81 1019.5
20260506151504 11 278 1.6 6.4 0.00 0.00 0.00 81 1019.5
20260506151403 11 276 1.6 6.4 0.00 0.00 0.00 81 1019.4
20260506151305 11 274 1.6 3.2 0.00 0.00 0.00 81 1019.5
20260506151204 11 274 1.6 3.2 0.00 0.00 0.00 81 1019.5
20260506151103 11 275 1.6 4.8 0.00 0.00 0.00 81 1019.5
20260506151003 11 275 1.6 4.8 0.00 0.00 0.00 81 1019.4
20260506150903 11 275 1.6 4.8 0.00 0.00 0.00 81 1019.3
20260506150803 11 276 1.6 4.8 0.00 0.00 0.00 81 1019.4
20260506150703 11 276 1.6 4.8 0.00 0.00 0.00 81 1019.4
20260506150603 11 277 1.6 4.8 0.00 0.00 0.00 81 1019.3
20260506150503 11 279 1.6 4.8 0.00 0.00 0.00 81 1019.3
20260506150403 11 280 1.6 4.8 0.00 0.00 0.00 81 1019.4
20260506150305 11 281 1.6 4.8 0.00 0.00 0.00 81 1019.3
20260506150005 11 283 1.6 4.8 0.00 0.00 0.00 81 1019.4
20260506145903 11 285 1.6 4.8 0.00 0.00 0.00 81 1019.3
20260506145604 11 287 1.6 3.2 0.00 0.00 0.00 81 1019.3
20260506145503 11 285 1.6 3.2 0.00 0.00 0.00 81 1019.2
20260506145404 11 283 1.6 4.8 0.00 0.00 0.00 81 1019.3
20260506145305 11 284 1.6 4.8 0.00 0.00 0.00 81 1019.2
20260506145204 11 283 1.6 4.8 0.00 0.00 0.00 81 1019.4
20260506145103 11 282 1.6 4.8 0.00 0.00 0.00 81 1019.3
20260506145004 11 282 3.2 6.4 0.00 0.00 0.00 81 1019.2
20260506144903 11 280 3.2 6.4 0.00 0.00 0.00 81 1019.3
20260506144803 11 281 3.2 6.4 0.00 0.00 0.00 81 1019.3
20260506144703 11 282 3.2 6.4 0.00 0.00 0.00 81 1019.2
20260506144605 11 282 3.2 6.4 0.00 0.00 0.00 81 1019.3
20260506144503 11 283 3.2 6.4 0.00 0.00 0.00 81 1019.3
20260506144403 11 284 3.2 6.4 0.00 0.00 0.00 81 1019.2
20260506144318 11 284 3.2 6.4 0.00 0.00 0.00 81 1019.2
20260506144303 11 283 3.2 6.4 0.00 0.00 0.00 81 1019.2
20260506144203 11 283 3.2 6.4 0.00 0.00 0.00 81 1019.1
20260506144003 11 283 1.6 4.8 0.00 0.00 0.00 81 1019.1
20260506143904 11 283 1.6 4.8 0.00 0.00 0.00 81 1019.1
20260506143803 11 281 1.6 4.8 0.00 0.00 0.00 81 1019.1
20260506143706 11 279 1.6 4.8 0.00 0.00 0.00 81 1019.0
20260506143603 11 278 1.6 4.8 0.00 0.00 0.00 81 1019.0
20260506143503 11 276 1.6 4.8 0.00 0.00 0.00 81 1019.0
20260506143404 11 273 1.6 4.8 0.00 0.00 0.00 81 1019.0
20260506143303 11 272 1.6 4.8 0.00 0.00 0.00 81 1018.9
20260506143203 11 270 1.6 4.8 0.00 0.00 0.00 81 1019.0
20260506143103 11 269 1.6 4.8 0.00 0.00 0.00 81 1019.0
20260506143003 11 267 1.6 4.8 0.00 0.00 0.00 81 1018.9
20260506142904 11 265 1.6 4.8 0.00 0.00 0.00 81 1019.0
20260506142803 11 261 1.6 4.8 0.00 0.00 0.00 81 1019.0
20260506142719 11 254 1.6 3.2 0.00 0.00 0.00 81 1018.9
20260506142703 11 253 1.6 3.2 0.00 0.00 0.00 81 1018.9
20260506142604 11 249 0.0 3.2 0.00 0.00 0.00 81 1019.0
20260506142403 11 243 0.0 3.2 0.00 0.00 0.00 81 1018.9
20260506142306 11 236 0.0 3.2 0.00 0.00 0.00 81 1018.9
20260506142203 11 234 0.0 3.2 0.00 0.00 0.00 81 1018.8
20260506142103 11 238 0.0 3.2 0.00 0.00 0.00 81 1018.8
20260506142004 11 245 0.0 3.2 0.00 0.00 0.00 81 1018.8
20260506141903 11 245 0.0 3.2 0.00 0.00 0.00 81 1018.9
20260506141804 11 243 0.0 3.2 0.00 0.00 0.00 81 1018.9
20260506141705 11 240 0.0 3.2 0.00 0.00 0.00 81 1018.9
20260506141604 11 244 0.0 3.2 0.00 0.00 0.00 81 1018.9
20260506141503 11 241 0.0 1.6 0.00 0.00 0.00 81 1018.9
20260506141403 11 243 0.0 1.6 0.00 0.00 0.00 81 1018.9
20260506141303 11 244 0.0 1.6 0.00 0.00 0.00 81 1018.8
20260506141203 11 244 0.0 1.6 0.00 0.00 0.00 81 1018.8
20260506141104 11 244 0.0 1.6 0.00 0.00 0.00 81 1018.8
20260506141004 11 241 0.0 1.6 0.00 0.00 0.00 81 1018.8
20260506140803 11 246 0.0 1.6 0.00 0.00 0.00 81 1018.8
20260506140703 11 251 0.0 1.6 0.00 0.00 0.00 81 1018.8
20260506140603 11 252 0.0 3.2 0.00 0.00 0.00 81 1018.9
20260506140503 11 255 0.0 3.2 0.00 0.00 0.00 81 1018.9
20260506140403 11 257 0.0 3.2 0.00 0.00 0.00 81 1019.0
20260506140303 11 259 0.0 3.2 0.00 0.00 0.00 81 1018.8
20260506140203 11 260 0.0 3.2 0.00 0.00 0.00 81 1018.8
20260506140007 11 266 0.0 3.2 0.00 0.00 0.00 81 1018.8
20260506135903 11 269 1.6 3.2 0.00 0.00 0.00 81 1018.8
20260506135803 11 272 1.6 3.2 0.00 0.00 0.00 81 1018.9
20260506135717 11 273 1.6 3.2 0.00 0.00 0.00 81 1018.8
20260506135703 11 274 1.6 3.2 0.00 0.00 0.00 81 1018.8
20260506135604 11 278 1.6 3.2 0.00 0.00 0.00 81 1018.7
20260506135403 11 280 1.6 6.4 0.00 0.00 0.00 81 1018.8
20260506135305 11 279 1.6 6.4 0.00 0.00 0.00 81 1018.8
20260506135203 11 278 1.6 6.4 0.00 0.00 0.00 81 1018.7
20260506135105 11 278 1.6 6.4 0.00 0.00 0.00 81 1018.9
20260506135003 11 277 1.6 6.4 0.00 0.00 0.00 81 1018.8
20260506134903 11 277 1.6 6.4 0.00 0.00 0.00 81 1018.8
20260506134803 11 277 1.6 6.4 0.00 0.00 0.00 81 1018.8
20260506134703 11 276 1.6 6.4 0.00 0.00 0.00 81 1018.8
20260506134603 11 276 1.6 6.4 0.00 0.00 0.00 81 1018.8
20260506134503 11 275 1.6 4.8 0.00 0.00 0.00 81 1018.8
20260506134403 11 274 1.6 4.8 0.00 0.00 0.00 81 1018.7
20260506134303 11 275 1.6 4.8 0.00 0.00 0.00 81 1018.7
20260506134203 11 275 1.6 3.2 0.00 0.00 0.00 81 1018.6
20260506134103 11 276 1.6 3.2 0.00 0.00 0.00 81 1018.6
20260506134003 11 276 1.6 3.2 0.00 0.00 0.00 81 1018.7
20260506133803 11 277 1.6 3.2 0.00 0.00 0.00 81 1018.7
20260506133703 11 278 1.6 3.2 0.00 0.00 0.00 81 1018.6
20260506133603 11 279 1.6 3.2 0.00 0.00 0.00 81 1018.6
20260506133303 11 279 1.6 3.2 0.00 0.00 0.00 81 1018.6
20260506133203 11 279 1.6 3.2 0.00 0.00 0.00 81 1018.6
20260506133103 11 279 1.6 3.2 0.00 0.00 0.00 81 1018.5
20260506133003 11 279 1.6 3.2 0.00 0.00 0.00 81 1018.6
20260506132903 11 279 1.6 3.2 0.00 0.00 0.00 81 1018.6
20260506132804 11 279 1.6 3.2 0.00 0.00 0.00 81 1018.5
20260506132703 11 279 1.6 3.2 0.00 0.00 0.00 81 1018.5
20260506132618 11 279 1.6 3.2 0.00 0.00 0.00 81 1018.4
20260506132603 11 279 0.0 3.2 0.00 0.00 0.00 81 1018.4
20260506132306 11 279 0.0 3.2 0.00 0.00 0.00 81 1018.4
20260506132203 11 279 0.0 3.2 0.00 0.00 0.00 81 1018.5
20260506132103 11 279 0.0 3.2 0.00 0.00 0.00 81 1018.4
20260506132003 11 281 0.0 4.8 0.00 0.00 0.00 81 1018.4
20260506131904 11 283 0.0 4.8 0.00 0.00 0.00 81 1018.2
20260506131803 11 284 1.6 4.8 0.00 0.00 0.00 81 1018.3
20260506131703 11 285 1.6 4.8 0.00 0.00 0.00 81 1018.3
20260506131603 11 286 1.6 4.8 0.00 0.00 0.00 81 1018.4
20260506131503 11 285 1.6 4.8 0.00 0.00 0.00 81 1018.5
20260506131403 11 286 1.6 4.8 0.00 0.00 0.00 81 1018.4
20260506131303 11 286 1.6 4.8 0.00 0.00 0.00 81 1018.3
20260506131203 11 287 1.6 4.8 0.00 0.00 0.00 81 1018.5
20260506131003 11 288 0.0 3.2 0.00 0.00 0.00 81 1018.4
20260506130903 11 288 0.0 3.2 0.00 0.00 0.00 81 1018.5
20260506130803 11 287 0.0 3.2 0.00 0.00 0.00 81 1018.4
20260506130703 11 285 0.0 3.2 0.00 0.00 0.00 81 1018.3
20260506130617 11 280 0.0 3.2 0.00 0.00 0.00 81 1018.3
20260506130604 11 275 0.0 3.2 0.00 0.00 0.00 81 1018.2
20260506130503 11 0 0.0 0.0 0.00 0.00 0.00 81 1018.2
20260506130303 11 0 0.0 0.0 0.00 0.00 0.00 81 1018.2
20260506130203 11 0 0.0 0.0 0.00 0.00 0.00 81 1018.2
20260506130103 11 0 0.0 0.0 0.00 0.00 0.00 81 1018.2
20260506130004 11 0 0.0 0.0 0.00 0.00 0.00 81 1018.2
20260506125903 11 0 0.0 0.0 0.00 0.00 0.00 81 1018.2
20260506125803 11 0 0.0 0.0 0.00 0.00 0.00 81 1018.1
20260506125703 11 0 0.0 0.0 0.00 0.00 0.00 81 1018.1
20260506125603 11 0 0.0 0.0 0.00 0.00 0.00 81 1018.1
20260506125503 11 0 0.0 0.0 0.00 0.00 0.00 81 1018.1
20260506125403 11 0 0.0 0.0 0.00 0.00 0.00 81 1018.2
20260506125305 11 0 0.0 0.0 0.00 0.00 0.00 81 1018.1
20260506125203 11 268 0.0 1.6 0.00 0.00 0.00 81 1018.2
20260506125103 11 268 0.0 1.6 0.00 0.00 0.00 81 1018.2
20260506125003 11 268 0.0 1.6 0.00 0.00 0.00 81 1018.2
20260506124903 11 268 0.0 1.6 0.00 0.00 0.00 81 1018.2
20260506124803 11 268 0.0 1.6 0.00 0.00 0.00 81 1018.2
20260506124716 11 268 0.0 1.6 0.00 0.00 0.00 81 1018.2
20260506124603 11 268 0.0 1.6 0.00 0.00 0.00 81 1018.2
20260506124403 11 268 0.0 1.6 0.00 0.00 0.00 81 1018.1
20260506124303 11 268 0.0 1.6 0.00 0.00 0.00 81 1018.1
20260506124203 11 268 0.0 1.6 0.00 0.00 0.00 81 1018.1
20260506124103 11 268 0.0 1.6 0.00 0.00 0.00 81 1018.1
20260506124003 11 268 0.0 1.6 0.00 0.00 0.00 81 1018.2
20260506123903 11 268 0.0 1.6 0.00 0.00 0.00 81 1018.1
20260506123803 11 268 0.0 3.2 0.00 0.00 0.00 81 1018.2
20260506123703 11 277 0.0 4.8 0.00 0.00 0.00 81 1018.3
20260506123617 11 280 0.0 4.8 0.00 0.00 0.00 81 1018.3
20260506123603 11 281 1.6 4.8 0.00 0.00 0.00 81 1018.3
20260506123503 11 284 1.6 4.8 0.00 0.00 0.00 81 1018.3
20260506123303 11 288 1.6 4.8 0.00 0.00 0.00 81 1018.4
20260506123204 11 289 1.6 4.8 0.00 0.00 0.00 81 1018.3
20260506123103 11 289 1.6 4.8 0.00 0.00 0.00 81 1018.3
20260506123004 11 291 1.6 4.8 0.00 0.00 0.00 81 1018.3
20260506122905 11 293 1.6 4.8 0.00 0.00 0.00 81 1018.4
20260506122803 11 299 0.0 4.8 0.00 0.00 0.00 81 1018.4
20260506122703 11 300 0.0 3.2 0.00 0.00 0.00 81 1018.4
20260506122603 11 298 0.0 3.2 0.00 0.00 0.00 81 1018.3
20260506122503 11 296 0.0 3.2 0.00 0.00 0.00 81 1018.3
20260506122305 11 294 0.0 3.2 0.00 0.00 0.00 81 1018.3
20260506122203 11 293 0.0 3.2 0.00 0.00 0.00 81 1018.3
20260506122003 11 292 0.0 1.6 0.00 0.00 0.00 81 1018.3
20260506121903 11 292 0.0 1.6 0.00 0.00 0.00 81 1018.4
20260506121803 11 292 0.0 1.6 0.00 0.00 0.00 81 1018.3
20260506121703 11 292 0.0 1.6 0.00 0.00 0.00 81 1018.2
20260506121603 11 292 0.0 1.6 0.00 0.00 0.00 81 1018.2
20260506121503 11 292 0.0 1.6 0.00 0.00 0.00 81 1018.1
20260506121403 11 292 0.0 1.6 0.00 0.00 0.00 81 1018.1
20260506121303 11 291 0.0 1.6 0.00 0.00 0.00 81 1018.2
20260506121203 11 289 0.0 1.6 0.00 0.00 0.00 81 1018.3
20260506121103 11 289 0.0 1.6 0.00 0.00 0.00 81 1018.2
20260506121003 11 288 0.0 1.6 0.00 0.00 0.00 81 1018.3
20260506120903 11 287 0.0 1.6 0.00 0.00 0.00 81 1018.3
20260506120818 11 289 0.0 3.2 0.00 0.00 0.00 81 1018.3
20260506120803 11 291 0.0 3.2 0.00 0.00 0.00 81 1018.3
20260506120703 11 298 0.0 3.2 0.00 0.00 0.00 81 1018.3
20260506120517 11 306 0.0 3.2 0.00 0.00 0.00 81 1018.3
20260506120503 11 307 1.6 4.8 0.00 0.00 0.00 81 1018.3
20260506120405 11 310 1.6 4.8 0.00 0.00 0.00 81 1018.3
20260506120203 11 312 1.6 4.8 0.00 0.00 0.00 81 1018.2
20260506120104 11 311 1.6 4.8 0.00 0.00 0.00 81 1018.3
20260506120006 11 310 1.6 4.8 0.00 0.00 0.00 81 1018.2
20260506115903 11 310 1.6 4.8 0.00 0.00 0.00 81 1018.3
20260506115818 11 314 1.6 4.8 0.00 0.00 0.00 81 1018.2
20260506115803 11 313 1.6 4.8 0.00 0.00 0.00 81 1018.2
20260506115704 11 310 1.6 4.8 0.00 0.00 0.00 81 1018.3
20260506115503 11 301 1.6 4.8 0.00 0.00 0.00 81 1018.3
20260506115403 11 299 1.6 4.8 0.00 0.00 0.00 81 1018.3
20260506115307 11 299 1.6 4.8 0.00 0.00 0.00 81 1018.3
20260506115203 11 300 1.6 4.8 0.00 0.00 0.00 81 1018.3
20260506115103 11 302 1.6 4.8 0.00 0.00 0.00 81 1018.4
20260506115003 11 302 1.6 4.8 0.00 0.00 0.00 81 1018.2
20260506114917 11 303 1.6 4.8 0.00 0.00 0.00 81 1018.3
20260506114903 11 301 1.6 4.8 0.00 0.00 0.00 81 1018.3
20260506114803 11 295 1.6 4.8 0.00 0.00 0.00 81 1018.3
20260506114604 11 291 1.6 4.8 0.00 0.00 0.00 81 1018.2
20260506114503 11 292 1.6 3.2 0.00 0.00 0.00 81 1018.1
20260506114403 11 290 1.6 4.8 0.00 0.00 0.00 81 1018.1
20260506114303 11 289 1.6 4.8 0.00 0.00 0.00 81 1018.1
20260506114203 11 288 1.6 4.8 0.00 0.00 0.00 81 1018.0
20260506114103 11 286 1.6 4.8 0.00 0.00 0.00 81 1018.0
20260506114017 11 286 1.6 4.8 0.00 0.00 0.00 81 1018.0
20260506114003 11 287 1.6 4.8 0.00 0.00 0.00 81 1018.0
20260506113903 11 288 1.6 4.8 0.00 0.00 0.00 81 1018.0
20260506113703 11 294 1.6 4.8 0.00 0.00 0.00 81 1018.0
20260506113603 11 298 1.6 4.8 0.00 0.00 0.00 81 1018.0
20260506113503 11 299 1.6 4.8 0.00 0.00 0.00 81 1018.0
20260506113403 11 299 1.6 3.2 0.00 0.00 0.00 81 1017.9
20260506113303 11 297 1.6 3.2 0.00 0.00 0.00 81 1017.9
20260506113203 11 298 1.6 3.2 0.00 0.00 0.00 81 1017.9
20260506113103 11 300 1.6 3.2 0.00 0.00 0.00 81 1018.0
20260506113003 11 293 1.6 3.2 0.00 0.00 0.00 81 1017.9
20260506112903 11 292 1.6 3.2 0.00 0.00 0.00 81 1017.9
20260506112803 11 289 1.6 3.2 0.00 0.00 0.00 81 1017.9
20260506112703 11 289 1.6 4.8 0.00 0.00 0.00 81 1017.9
20260506112603 11 289 1.6 4.8 0.00 0.00 0.00 81 1017.9
20260506112503 11 289 3.2 4.8 0.00 0.00 0.00 81 1017.9
20260506112403 11 288 3.2 4.8 0.00 0.00 0.00 81 1017.9
20260506112305 11 288 3.2 4.8 0.00 0.00 0.00 81 1018.0
20260506112203 11 286 3.2 4.8 0.00 0.00 0.00 82 1017.9
20260506112103 11 284 3.2 4.8 0.00 0.00 0.00 81 1018.0
20260506112004 11 285 3.2 4.8 0.00 0.00 0.00 81 1018.1
20260506111903 11 284 3.2 4.8 0.00 0.00 0.00 81 1018.0
20260506111718 11 287 3.2 4.8 0.00 0.00 0.00 82 1018.1
20260506111703 11 288 1.6 4.8 0.00 0.00 0.00 82 1018.1
20260506111603 11 289 1.6 4.8 0.00 0.00 0.00 82 1018.1
20260506111403 11 290 1.6 4.8 0.00 0.00 0.00 82 1018.1
20260506111303 11 289 1.6 4.8 0.00 0.00 0.00 82 1018.1
20260506111018 11 290 1.6 4.8 0.00 0.00 0.00 82 1018.0
20260506111003 11 291 1.6 4.8 0.00 0.00 0.00 82 1018.0
20260506110905 11 293 1.6 4.8 0.00 0.00 0.00 82 1018.0
20260506110703 11 290 1.6 4.8 0.00 0.00 0.00 82 1018.0
20260506110603 11 290 1.6 4.8 0.00 0.00 0.00 82 1018.0
20260506110503 11 290 3.2 4.8 0.00 0.00 0.00 82 1018.1
20260506110403 11 291 3.2 4.8 0.00 0.00 0.00 82 1018.1
20260506110303 11 291 3.2 4.8 0.00 0.00 0.00 82 1018.1
20260506110203 11 290 3.2 6.4 0.00 0.00 0.00 82 1018.0
20260506110018 11 288 3.2 6.4 0.00 0.00 0.00 82 1018.1
20260506110004 11 287 3.2 6.4 0.00 0.00 0.00 82 1018.1
20260506105904 11 287 3.2 6.4 0.00 0.00 0.00 82 1018.1
20260506105603 11 283 3.2 6.4 0.00 0.00 0.00 82 1018.0
20260506105503 11 281 3.2 6.4 0.00 0.00 0.00 82 1018.0
20260506105305 11 281 3.2 6.4 0.00 0.00 0.00 82 1018.0
20260506105203 11 282 3.2 6.4 0.00 0.00 0.00 82 1018.0
20260506105103 11 283 3.2 6.4 0.00 0.00 0.00 82 1018.0
20260506105003 11 284 3.2 6.4 0.00 0.00 0.00 82 1018.0
20260506104903 11 286 3.2 6.4 0.00 0.00 0.00 82 1018.0
20260506104703 11 290 3.2 4.8 0.00 0.00 0.00 82 1018.1
20260506104603 11 293 3.2 4.8 0.00 0.00 0.00 82 1018.0
20260506104503 11 297 1.6 4.8 0.00 0.00 0.00 82 1018.0
20260506104403 11 298 1.6 4.8 0.00 0.00 0.00 83 1018.0
20260506104318 11 300 1.6 4.8 0.00 0.00 0.00 83 1018.0
20260506104303 11 301 1.6 4.8 0.00 0.00 0.00 83 1018.0
20260506104219 11 303 1.6 4.8 0.00 0.00 0.00 82 1018.0
20260506104203 11 304 1.6 4.8 0.00 0.00 0.00 83 1018.0
20260506103903 11 308 1.6 3.2 0.00 0.00 0.00 83 1017.9
20260506103803 11 308 1.6 3.2 0.00 0.00 0.00 83 1018.0
20260506103703 11 307 1.6 3.2 0.00 0.00 0.00 83 1018.0
20260506103603 11 305 1.6 3.2 0.00 0.00 0.00 83 1018.0
20260506103503 11 304 1.6 3.2 0.00 0.00 0.00 83 1018.0
20260506103404 11 304 1.6 3.2 0.00 0.00 0.00 83 1018.0
20260506103303 11 304 1.6 3.2 0.00 0.00 0.00 83 1017.9
20260506103203 11 304 1.6 3.2 0.00 0.00 0.00 83 1017.9
20260506103103 11 304 0.0 3.2 0.00 0.00 0.00 83 1017.9
20260506102903 11 303 0.0 3.2 0.00 0.00 0.00 83 1017.9
20260506102803 11 303 0.0 3.2 0.00 0.00 0.00 83 1017.9
20260506102703 11 302 0.0 3.2 0.00 0.00 0.00 83 1017.9
20260506102603 11 301 0.0 3.2 0.00 0.00 0.00 83 1017.9
20260506102503 11 299 0.0 3.2 0.00 0.00 0.00 83 1017.8
20260506102403 11 297 0.0 3.2 0.00 0.00 0.00 83 1017.8
20260506102305 11 296 0.0 3.2 0.00 0.00 0.00 83 1017.8
20260506102204 11 293 0.0 3.2 0.00 0.00 0.00 83 1017.8
20260506102003 11 291 0.0 3.2 0.00 0.00 0.00 83 1017.8
20260506101903 11 290 0.0 3.2 0.00 0.00 0.00 83 1017.8
20260506101803 11 290 0.0 3.2 0.00 0.00 0.00 83 1017.8
20260506101703 11 290 1.6 3.2 0.00 0.00 0.00 83 1017.8
20260506101603 11 289 1.6 3.2 0.00 0.00 0.00 83 1017.8
20260506101503 11 288 0.0 3.2 0.00 0.00 0.00 83 1017.8
20260506101403 11 288 0.0 3.2 0.00 0.00 0.00 83 1017.8
20260506101303 11 287 0.0 3.2 0.00 0.00 0.00 83 1017.8
20260506101203 11 287 0.0 3.2 0.00 0.00 0.00 83 1017.7
20260506101103 11 285 0.0 3.2 0.00 0.00 0.00 83 1017.7
20260506101003 11 284 0.0 3.2 0.00 0.00 0.00 83 1017.7
20260506100903 11 284 0.0 1.6 0.00 0.00 0.00 83 1017.7
20260506100803 11 285 0.0 3.2 0.00 0.00 0.00 83 1017.7
20260506100703 11 289 0.0 3.2 0.00 0.00 0.00 83 1017.7
20260506100603 11 290 0.0 3.2 0.00 0.00 0.00 83 1017.6
20260506100503 11 290 0.0 3.2 0.00 0.00 0.00 83 1017.6
20260506100403 11 299 0.0 3.2 0.00 0.00 0.00 83 1017.7
20260506100303 11 305 0.0 3.2 0.00 0.00 0.00 83 1017.7
20260506100203 11 303 0.0 3.2 0.00 0.00 0.00 83 1017.6
20260506100103 11 302 0.0 3.2 0.00 0.00 0.00 83 1017.6
20260506100005 11 302 1.6 3.2 0.00 0.00 0.00 83 1017.5
20260506095918 11 300 1.6 3.2 0.00 0.00 0.00 83 1017.6
20260506095903 11 300 0.0 3.2 0.00 0.00 0.00 83 1017.6
20260506095803 11 302 0.0 3.2 0.00 0.00 0.00 83 1017.7
20260506095618 11 301 0.0 3.2 0.00 0.00 0.00 83 1017.7
20260506095603 11 300 0.0 3.2 0.00 0.00 0.00 83 1017.7
20260506095503 11 300 0.0 3.2 0.00 0.00 0.00 83 1017.6
20260506095305 11 288 0.0 3.2 0.00 0.00 0.00 83 1017.7
20260506095203 11 288 0.0 3.2 0.00 0.00 0.00 83 1017.6
20260506095104 11 288 0.0 3.2 0.00 0.00 0.00 83 1017.7
20260506095003 11 288 0.0 3.2 0.00 0.00 0.00 83 1017.6
20260506094903 11 288 0.0 3.2 0.00 0.00 0.00 83 1017.7
20260506094703 11 288 1.6 3.2 0.00 0.00 0.00 83 1017.7
20260506094603 11 288 1.6 3.2 0.00 0.00 0.00 83 1017.8
20260506094503 11 288 1.6 3.2 0.00 0.00 0.00 83 1017.6
20260506094403 11 288 1.6 3.2 0.00 0.00 0.00 83 1017.8
20260506094304 11 288 1.6 3.2 0.00 0.00 0.00 83 1017.8
20260506094218 11 288 1.6 3.2 0.00 0.00 0.00 83 1017.8
20260506094103 11 288 1.6 3.2 0.00 0.00 0.00 83 1017.8
20260506093903 11 288 0.0 3.2 0.00 0.00 0.00 83 1017.9
20260506093803 11 288 0.0 3.2 0.00 0.00 0.00 83 1017.8
20260506093703 12 288 0.0 3.2 0.00 0.00 0.00 83 1017.8
20260506093604 12 287 0.0 3.2 0.00 0.00 0.00 83 1017.8
20260506093503 12 287 0.0 3.2 0.00 0.00 0.00 83 1017.8
20260506093403 12 289 0.0 3.2 0.00 0.00 0.00 83 1017.8
20260506093303 12 291 1.6 3.2 0.00 0.00 0.00 83 1017.8
20260506093218 12 292 1.6 3.2 0.00 0.00 0.00 83 1017.8
20260506093203 12 292 1.6 3.2 0.00 0.00 0.00 83 1017.7
20260506093103 12 293 1.6 3.2 0.00 0.00 0.00 83 1017.8
20260506092903 12 295 1.6 4.8 0.00 0.00 0.00 83 1017.7
20260506092803 12 298 1.6 6.4 0.00 0.00 0.00 83 1017.8
20260506092703 12 300 1.6 6.4 0.00 0.00 0.00 83 1017.8
20260506092603 12 303 1.6 6.4 0.00 0.00 0.00 83 1017.7
20260506092503 12 304 1.6 6.4 0.00 0.00 0.00 83 1017.7
20260506092403 12 302 1.6 6.4 0.00 0.00 0.00 83 1017.7
20260506092305 12 300 3.2 6.4 0.00 0.00 0.00 83 1017.7
20260506092203 12 299 3.2 6.4 0.00 0.00 0.00 83 1017.8
20260506092103 12 298 3.2 6.4 0.00 0.00 0.00 83 1017.7
20260506091903 12 298 1.6 6.4 0.00 0.00 0.00 83 1017.7
20260506091803 12 296 1.6 4.8 0.00 0.00 0.00 83 1017.7
20260506091604 12 293 3.2 4.8 0.00 0.00 0.00 83 1017.7
20260506091503 12 293 3.2 4.8 0.00 0.00 0.00 83 1017.7
20260506091403 12 296 3.2 4.8 0.00 0.00 0.00 83 1017.7
20260506091203 12 295 3.2 4.8 0.00 0.00 0.00 83 1017.7
20260506091103 12 293 3.2 4.8 0.00 0.00 0.00 83 1017.7
20260506091003 12 290 3.2 4.8 0.00 0.00 0.00 83 1017.5
20260506090903 12 287 3.2 9.7 0.00 0.00 0.00 83 1017.5
20260506090803 12 287 3.2 9.7 0.00 0.00 0.00 83 1017.5
20260506090703 12 288 3.2 9.7 0.00 0.00 0.00 83 1017.7
20260506090603 12 288 1.6 9.7 0.00 0.00 0.00 83 1017.6
20260506090503 12 288 1.6 9.7 0.00 0.00 0.00 83 1017.6
20260506090403 12 286 1.6 9.7 0.00 0.00 0.00 83 1017.6
20260506090303 12 287 1.6 9.7 0.00 0.00 0.00 83 1017.5
20260506090203 12 290 1.6 9.7 0.00 0.00 0.00 83 1017.6
20260506090004 12 304 1.6 9.7 0.00 0.00 0.00 83 1017.5
20260506085903 12 314 1.6 4.8 0.00 0.00 0.00 83 1017.6
20260506085803 12 311 1.6 4.8 0.00 0.00 0.00 83 1017.6
20260506085703 12 313 1.6 4.8 0.00 0.00 0.00 83 1017.6
20260506085604 12 314 1.6 4.8 0.00 0.00 0.00 83 1017.6
20260506085518 12 314 1.6 4.8 0.00 0.00 0.00 83 1017.6
20260506085503 12 313 1.6 4.8 0.00 0.00 0.00 83 1017.6
20260506085403 12 310 1.6 4.8 0.00 0.00 0.00 83 1017.5
20260506085203 12 304 1.6 4.8 0.00 0.00 0.00 83 1017.4
20260506085103 12 302 1.6 4.8 0.00 0.00 0.00 83 1017.5
20260506085004 12 299 1.6 4.8 0.00 0.00 0.00 83 1017.4
20260506084918 12 297 1.6 4.8 0.00 0.00 0.00 83 1017.4
20260506084903 12 294 1.6 4.8 0.00 0.00 0.00 83 1017.4
20260506084818 12 293 1.6 4.8 0.00 0.00 0.00 83 1017.4
20260506084803 12 292 1.6 4.8 0.00 0.00 0.00 83 1017.4
20260506084504 12 282 1.6 4.8 0.00 0.00 0.00 83 1017.4
20260506084417 12 281 1.6 4.8 0.00 0.00 0.00 83 1017.4
20260506084403 12 283 1.6 3.2 0.00 0.00 0.00 83 1017.4
20260506084303 12 284 1.6 3.2 0.00 0.00 0.00 83 1017.4
20260506084103 12 290 1.6 3.2 0.00 0.00 0.00 83 1017.4
20260506084003 12 294 1.6 3.2 0.00 0.00 0.00 83 1017.4
20260506083904 12 295 1.6 3.2 0.00 0.00 0.00 83 1017.3
20260506083803 12 294 1.6 3.2 0.00 0.00 0.00 83 1017.3
20260506083703 12 294 1.6 3.2 0.00 0.00 0.00 83 1017.3
20260506083603 12 295 1.6 4.8 0.00 0.00 0.00 83 1017.3
20260506083503 12 290 1.6 4.8 0.00 0.00 0.00 83 1017.3
20260506083403 12 286 1.6 4.8 0.00 0.00 0.00 83 1017.3
20260506083303 12 287 1.6 4.8 0.00 0.00 0.00 83 1017.4
20260506083203 12 291 1.6 4.8 0.00 0.00 0.00 83 1017.3
20260506083103 12 290 1.6 4.8 0.00 0.00 0.00 83 1017.4
20260506083003 12 289 1.6 4.8 0.00 0.00 0.00 83 1017.3
20260506082903 12 291 1.6 4.8 0.00 0.00 0.00 83 1017.2
20260506082803 12 293 1.6 4.8 0.00 0.00 0.00 83 1017.3
20260506082703 12 295 1.6 4.8 0.00 0.00 0.00 83 1017.2
20260506082603 12 299 1.6 4.8 0.00 0.00 0.00 83 1017.3
20260506082503 12 307 1.6 4.8 0.00 0.00 0.00 83 1017.3
20260506082403 12 322 0.0 3.2 0.00 0.00 0.00 83 1017.3
20260506082305 12 320 0.0 3.2 0.00 0.00 0.00 83 1017.3
20260506082203 12 314 0.0 3.2 0.00 0.00 0.00 83 1017.3
20260506082103 12 315 0.0 3.2 0.00 0.00 0.00 83 1017.3
20260506082003 12 320 0.0 3.2 0.00 0.00 0.00 83 1017.3
20260506081904 12 320 0.0 1.6 0.00 0.00 0.00 83 1017.4
20260506081803 12 320 0.0 1.6 0.00 0.00 0.00 83 1017.4
20260506081704 12 320 0.0 1.6 0.00 0.00 0.00 83 1017.3
20260506081603 12 320 0.0 1.6 0.00 0.00 0.00 83 1017.3
20260506081504 12 320 0.0 1.6 0.00 0.00 0.00 83 1017.4
20260506081403 12 320 0.0 1.6 0.00 0.00 0.00 83 1017.3
20260506081304 12 320 0.0 1.6 0.00 0.00 0.00 83 1017.4
20260506081106 12 320 0.0 1.6 0.00 0.00 0.00 82 1017.2
20260506081003 12 320 0.0 1.6 0.00 0.00 0.00 82 1017.3
20260506080904 12 320 0.0 3.2 0.00 0.00 0.00 82 1017.3
20260506080703 12 320 0.0 3.2 0.00 0.00 0.00 82 1017.3
20260506080603 12 320 0.0 3.2 0.00 0.00 0.00 82 1017.4
20260506080503 12 319 1.6 3.2 0.00 0.00 0.00 82 1017.4
20260506080403 12 320 1.6 3.2 0.00 0.00 0.00 82 1017.3
20260506080303 12 316 1.6 3.2 0.00 0.00 0.00 82 1017.3
20260506080203 12 314 1.6 3.2 0.00 0.00 0.00 82 1017.3
20260506080103 12 310 1.6 3.2 0.00 0.00 0.00 82 1017.3
20260506073504 12 336 0.0 3.2 0.00 0.00 0.00 82 1017.0
20260506073403 12 334 0.0 3.2 0.00 0.00 0.00 82 1017.0
20260506073203 12 331 0.0 3.2 0.00 0.00 0.00 82 1017.0
20260506073104 12 330 0.0 3.2 0.00 0.00 0.00 82 1017.0
20260506073003 12 324 0.0 3.2 0.00 0.00 0.00 82 1017.0
20260506072904 12 321 0.0 3.2 0.00 0.00 0.00 82 1016.9
20260506072803 12 317 0.0 3.2 0.00 0.00 0.00 81 1016.9
20260506072703 12 312 0.0 3.2 0.00 0.00 0.00 82 1016.9
20260506072603 12 310 0.0 3.2 0.00 0.00 0.00 81 1016.8
20260506072503 12 308 0.0 3.2 0.00 0.00 0.00 82 1016.8
20260506072305 12 298 0.0 1.6 0.00 0.00 0.00 81 1016.9
20260506072203 12 298 0.0 1.6 0.00 0.00 0.00 81 1016.8
20260506072103 12 298 0.0 1.6 0.00 0.00 0.00 81 1016.9
20260506072003 12 298 0.0 3.2 0.00 0.00 0.00 81 1016.9
20260506071903 12 298 0.0 3.2 0.00 0.00 0.00 81 1016.8
20260506071803 12 298 0.0 3.2 0.00 0.00 0.00 81 1016.8
20260506071703 12 298 0.0 3.2 0.00 0.00 0.00 81 1016.8
20260506071604 12 298 0.0 3.2 0.00 0.00 0.00 81 1016.7
20260506071503 12 298 0.0 3.2 0.00 0.00 0.00 81 1016.8
20260506071404 12 298 0.0 3.2 0.00 0.00 0.00 81 1016.7
20260506071303 12 298 0.0 3.2 0.00 0.00 0.00 81 1016.8
20260506071204 12 298 0.0 3.2 0.00 0.00 0.00 81 1016.8
20260506071104 12 298 0.0 3.2 0.00 0.00 0.00 81 1016.8
20260506071004 12 298 0.0 1.6 0.00 0.00 0.00 81 1016.9
20260506070904 12 298 0.0 1.6 0.00 0.00 0.00 81 1016.9
20260506070818 12 298 0.0 1.6 0.00 0.00 0.00 81 1016.8
20260506070704 12 298 0.0 1.6 0.00 0.00 0.00 81 1016.9
20260506070518 12 298 0.0 1.6 0.00 0.00 0.00 81 1016.9
20260506070404 12 298 0.0 1.6 0.00 0.00 0.00 81 1016.8
20260506070203 12 298 0.0 1.6 0.00 0.00 0.00 81 1016.9
20260506070104 12 298 0.0 1.6 0.00 0.00 0.00 81 1016.8
20260506062503 12 293 1.6 3.2 0.00 0.00 0.00 81 1016.9
20260506062403 12 295 1.6 3.2 0.00 0.00 0.00 81 1016.9
20260506062305 12 296 1.6 3.2 0.00 0.00 0.00 81 1016.8
20260506062203 12 297 1.6 3.2 0.00 0.00 0.00 81 1016.8
20260506062103 12 298 1.6 3.2 0.00 0.00 0.00 81 1016.8
20260506062004 12 298 1.6 3.2 0.00 0.00 0.00 81 1016.8
20260506061803 12 298 1.6 3.2 0.00 0.00 0.00 81 1016.8
20260506061703 12 298 1.6 3.2 0.00 0.00 0.00 81 1016.7
20260506061603 12 298 1.6 3.2 0.00 0.00 0.00 81 1016.9
20260506061503 12 298 0.0 3.2 0.00 0.00 0.00 81 1016.8
20260506061303 12 298 0.0 3.2 0.00 0.00 0.00 81 1016.8
20260506061203 12 298 0.0 3.2 0.00 0.00 0.00 81 1016.9
20260506061103 12 298 0.0 3.2 0.00 0.00 0.00 81 1016.8
20260506061005 12 298 0.0 3.2 0.00 0.00 0.00 81 1016.8
20260506060903 12 298 0.0 3.2 0.00 0.00 0.00 81 1016.8
20260506060803 12 298 0.0 3.2 0.00 0.00 0.00 81 1016.8
20260506060703 12 298 0.0 3.2 0.00 0.00 0.00 81 1016.9
20260506060603 12 298 0.0 3.2 0.00 0.00 0.00 81 1016.8
20260506060503 12 298 0.0 3.2 0.00 0.00 0.00 81 1016.8
20260506060303 12 298 0.0 3.2 0.00 0.00 0.00 81 1016.8
20260506060203 12 298 0.0 3.2 0.00 0.00 0.00 81 1016.8
20260506051303 12 340 1.6 3.2 0.00 0.00 0.00 81 1016.7
20260506051204 12 340 1.6 3.2 0.00 0.00 0.00 81 1016.7
20260506051103 12 335 1.6 3.2 0.00 0.00 0.00 81 1016.6
20260506051003 12 328 1.6 3.2 0.00 0.00 0.00 80 1016.6
20260506050904 12 314 1.6 3.2 0.00 0.00 0.00 81 1016.6
20260506050803 12 305 1.6 3.2 0.00 0.00 0.00 80 1016.6
20260506050703 12 300 1.6 3.2 0.00 0.00 0.00 80 1016.6
20260506050603 12 296 1.6 3.2 0.00 0.00 0.00 81 1016.6
20260506050503 12 292 1.6 3.2 0.00 0.00 0.00 81 1016.5
20260506050417 12 291 1.6 3.2 0.00 0.00 0.00 80 1016.6
20260506050403 12 290 1.6 3.2 0.00 0.00 0.00 80 1016.6
20260506050303 12 288 1.6 3.2 0.00 0.00 0.00 80 1016.7
20260506050103 12 294 1.6 3.2 0.00 0.00 0.00 80 1016.7
20260506045103 12 332 0.0 3.2 0.00 0.00 0.00 80 1016.7
20260506045003 12 322 0.0 3.2 0.00 0.00 0.00 80 1016.7
20260506044903 12 317 0.0 3.2 0.00 0.00 0.00 80 1016.6
20260506044804 12 312 0.0 3.2 0.00 0.00 0.00 80 1016.5
20260506044603 12 305 0.0 3.2 0.00 0.00 0.00 80 1016.6
20260506044517 12 304 0.0 3.2 0.00 0.00 0.00 80 1016.6
20260506044503 12 305 1.6 3.2 0.00 0.00 0.00 80 1016.5
20260506044404 12 305 1.6 3.2 0.00 0.00 0.00 80 1016.7
20260506044318 12 305 1.6 3.2 0.00 0.00 0.00 80 1016.5
20260506044003 12 297 1.6 3.2 0.00 0.00 0.00 80 1016.6
20260506043903 12 296 1.6 3.2 0.00 0.00 0.00 80 1016.6
20260506043803 12 296 1.6 3.2 0.00 0.00 0.00 80 1016.7
20260506043703 12 294 1.6 3.2 0.00 0.00 0.00 80 1016.6
20260506043604 12 291 1.6 3.2 0.00 0.00 0.00 80 1016.5
20260506043503 12 287 1.6 4.8 0.00 0.00 0.00 80 1016.6
20260506043404 12 281 1.6 4.8 0.00 0.00 0.00 80 1016.6
20260506043303 12 277 1.6 4.8 0.00 0.00 0.00 80 1016.6
20260506043203 12 278 1.6 4.8 0.00 0.00 0.00 79 1016.5
20260506043103 12 279 1.6 4.8 0.00 0.00 0.00 79 1016.6
20260506043018 12 282 1.6 4.8 0.00 0.00 0.00 79 1016.5
20260506043004 12 283 1.6 4.8 0.00 0.00 0.00 79 1016.5
20260506042903 12 285 1.6 4.8 0.00 0.00 0.00 79 1016.6
20260506042703 12 295 1.6 4.8 0.00 0.00 0.00 79 1016.5
20260506042604 12 298 1.6 4.8 0.00 0.00 0.00 79 1016.4
20260506042506 12 303 1.6 4.8 0.00 0.00 0.00 79 1016.5
20260506042404 12 310 1.6 4.8 0.00 0.00 0.00 79 1016.6
20260506042305 12 309 1.6 4.8 0.00 0.00 0.00 79 1016.5
20260506042203 12 309 1.6 4.8 0.00 0.00 0.00 79 1016.5
20260506042103 12 304 1.6 4.8 0.00 0.00 0.00 79 1016.4
20260506042003 12 297 1.6 4.8 0.00 0.00 0.00 79 1016.5
20260506041903 12 294 1.6 4.8 0.00 0.00 0.00 79 1016.4
20260506041803 12 289 3.2 4.8 0.00 0.00 0.00 79 1016.5
20260506041703 12 288 3.2 4.8 0.00 0.00 0.00 79 1016.5
20260506041603 12 286 3.2 4.8 0.00 0.00 0.00 79 1016.5
20260506041403 12 287 3.2 4.8 0.00 0.00 0.00 79 1016.4
20260506041303 12 287 3.2 4.8 0.00 0.00 0.00 79 1016.4
20260506041203 12 288 1.6 4.8 0.00 0.00 0.00 79 1016.5
20260506041003 12 291 1.6 4.8 0.00 0.00 0.00 79 1016.4
20260506040903 12 293 1.6 4.8 0.00 0.00 0.00 79 1016.4
20260506040703 12 295 1.6 3.2 0.00 0.00 0.00 79 1016.2
20260506040603 12 296 1.6 3.2 0.00 0.00 0.00 79 1016.3
20260506040503 12 297 1.6 3.2 0.00 0.00 0.00 79 1016.2
20260506040403 12 298 1.6 3.2 0.00 0.00 0.00 80 1016.2
20260506040303 12 299 1.6 3.2 0.00 0.00 0.00 79 1016.2
20260506040203 12 300 1.6 3.2 0.00 0.00 0.00 79 1016.1
20260506040119 12 299 1.6 4.8 0.00 0.00 0.00 79 1016.1
20260506040005 12 297 1.6 4.8 0.00 0.00 0.00 79 1016.1
20260506035705 12 293 1.6 4.8 0.00 0.00 0.00 79 1016.1
20260506035606 12 292 1.6 4.8 0.00 0.00 0.00 79 1016.1
20260506035505 12 291 1.6 4.8 0.00 0.00 0.00 79 1016.1
20260506035403 12 290 1.6 4.8 0.00 0.00 0.00 79 1016.0
20260506035306 12 290 1.6 4.8 0.00 0.00 0.00 79 1016.0
20260506035203 12 289 1.6 4.8 0.00 0.00 0.00 79 1016.0
20260506035103 12 288 1.6 3.2 0.00 0.00 0.00 79 1016.1
20260506035003 12 288 1.6 3.2 0.00 0.00 0.00 79 1016.0
20260506034903 12 288 1.6 3.2 0.00 0.00 0.00 79 1016.0
20260506034803 12 286 1.6 4.8 0.00 0.00 0.00 79 1016.0
20260506034703 12 285 1.6 4.8 0.00 0.00 0.00 79 1016.0
20260506034603 12 284 1.6 4.8 0.00 0.00 0.00 79 1016.0
20260506034503 12 283 1.6 4.8 0.00 0.00 0.00 79 1016.0
20260506034405 12 282 1.6 4.8 0.00 0.00 0.00 79 1016.0
20260506034305 12 282 1.6 4.8 0.00 0.00 0.00 79 1016.0
20260506034205 12 282 1.6 4.8 0.00 0.00 0.00 79 1015.9
20260506034103 12 281 1.6 4.8 0.00 0.00 0.00 79 1015.9
20260506033903 12 280 1.6 4.8 0.00 0.00 0.00 79 1016.0
20260506033805 12 280 1.6 4.8 0.00 0.00 0.00 79 1015.9
20260506033703 12 281 1.6 4.8 0.00 0.00 0.00 79 1015.8
20260506033603 12 281 1.6 4.8 0.00 0.00 0.00 79 1015.8
20260506033504 12 281 1.6 4.8 0.00 0.00 0.00 79 1015.9
20260506033403 12 281 1.6 3.2 0.00 0.00 0.00 79 1015.8
20260506033303 12 281 0.0 3.2 0.00 0.00 0.00 79 1015.8
20260506033203 12 281 1.6 3.2 0.00 0.00 0.00 79 1015.8
20260506033103 12 281 1.6 4.8 0.00 0.00 0.00 79 1015.8
20260506033003 12 281 1.6 4.8 0.00 0.00 0.00 79 1015.8
20260506032904 12 281 1.6 4.8 0.00 0.00 0.00 79 1015.8
20260506032803 12 281 1.6 4.8 0.00 0.00 0.00 79 1015.8
20260506032704 12 281 1.6 4.8 0.00 0.00 0.00 79 1015.9
20260506032618 12 281 1.6 4.8 0.00 0.00 0.00 79 1015.9
20260506032603 12 281 1.6 4.8 0.00 0.00 0.00 79 1016.0
20260506032417 12 280 1.6 4.8 0.00 0.00 0.00 79 1015.8
20260506032318 12 279 1.6 4.8 0.00 0.00 0.00 79 1015.8
20260506032305 12 278 1.6 4.8 0.00 0.00 0.00 79 1015.8
20260506032003 12 276 1.6 4.8 0.00 0.00 0.00 79 1015.9
20260506031903 12 276 1.6 4.8 0.00 0.00 0.00 79 1015.9
20260506031804 12 276 1.6 4.8 0.00 0.00 0.00 79 1015.9
20260506031705 12 275 3.2 4.8 0.00 0.00 0.00 79 1015.9
20260506031605 12 274 1.6 4.8 0.00 0.00 0.00 79 1015.9
20260506031505 13 275 1.6 4.8 0.00 0.00 0.00 79 1015.9
20260506031403 13 276 1.6 4.8 0.00 0.00 0.00 79 1015.9
20260506031320 13 277 1.6 4.8 0.00 0.00 0.00 79 1015.9
20260506031304 13 277 1.6 4.8 0.00 0.00 0.00 79 1015.9
20260506031003 13 281 1.6 4.8 0.00 0.00 0.00 79 1016.0
20260506030904 13 281 1.6 4.8 0.00 0.00 0.00 79 1015.9
20260506030803 13 282 1.6 4.8 0.00 0.00 0.00 79 1015.9
20260506030704 13 284 1.6 4.8 0.00 0.00 0.00 79 1015.9
20260506030603 13 288 1.6 3.2 0.00 0.00 0.00 79 1016.0
20260506030503 13 288 1.6 3.2 0.00 0.00 0.00 79 1016.0
20260506030403 13 288 1.6 3.2 0.00 0.00 0.00 79 1015.9
20260506030303 13 287 1.6 3.2 0.00 0.00 0.00 79 1015.9
20260506030203 13 286 1.6 6.4 0.00 0.00 0.00 79 1015.9
20260506030103 13 286 1.6 6.4 0.00 0.00 0.00 79 1015.9
20260506030005 13 286 1.6 6.4 0.00 0.00 0.00 79 1016.0
20260506025903 13 288 1.6 6.4 0.00 0.00 0.00 79 1016.0
20260506025803 13 290 1.6 6.4 0.00 0.00 0.00 79 1015.9
20260506025603 13 294 1.6 6.4 0.00 0.00 0.00 79 1015.9
20260506025503 13 296 1.6 6.4 0.00 0.00 0.00 79 1015.9
20260506025403 13 298 1.6 6.4 0.00 0.00 0.00 79 1015.9
20260506025306 13 300 1.6 6.4 0.00 0.00 0.00 79 1015.9
20260506025203 13 307 1.6 3.2 0.00 0.00 0.00 79 1015.9
20260506025103 13 310 1.6 3.2 0.00 0.00 0.00 79 1015.9
20260506025003 13 314 1.6 3.2 0.00 0.00 0.00 79 1015.9
20260506024903 13 315 1.6 3.2 0.00 0.00 0.00 79 1016.0
20260506024818 13 315 1.6 3.2 0.00 0.00 0.00 79 1015.8
20260506024803 13 315 1.6 3.2 0.00 0.00 0.00 79 1016.0
20260506024703 13 315 1.6 3.2 0.00 0.00 0.00 78 1015.9
20260506024503 13 311 1.6 4.8 0.00 0.00 0.00 78 1016.0
20260506024403 13 308 1.6 4.8 0.00 0.00 0.00 78 1015.9
20260506024304 13 307 1.6 4.8 0.00 0.00 0.00 78 1015.8
20260506024203 13 307 1.6 4.8 0.00 0.00 0.00 78 1015.9
20260506024003 13 297 1.6 4.8 0.00 0.00 0.00 78 1015.9
20260506023903 13 293 1.6 4.8 0.00 0.00 0.00 78 1015.8
20260506023803 13 290 1.6 4.8 0.00 0.00 0.00 78 1015.8
20260506023717 13 286 1.6 4.8 0.00 0.00 0.00 78 1015.9
20260506023703 13 284 1.6 4.8 0.00 0.00 0.00 78 1015.9
20260506023603 13 279 1.6 4.8 0.00 0.00 0.00 78 1015.9
20260506023304 13 279 1.6 4.8 0.00 0.00 0.00 78 1015.9
20260506023203 13 279 1.6 4.8 0.00 0.00 0.00 78 1015.9
20260506023103 13 281 1.6 4.8 0.00 0.00 0.00 78 1015.9
20260506023004 13 283 1.6 4.8 0.00 0.00 0.00 78 1015.9
20260506022904 13 285 1.6 4.8 0.00 0.00 0.00 78 1015.9
20260506022803 13 287 1.6 4.8 0.00 0.00 0.00 78 1015.9
20260506022703 13 290 1.6 4.8 0.00 0.00 0.00 78 1015.8
20260506022603 13 292 1.6 4.8 0.00 0.00 0.00 78 1015.8
20260506022503 13 294 1.6 3.2 0.00 0.00 0.00 78 1015.8
20260506022416 13 293 1.6 3.2 0.00 0.00 0.00 78 1015.8
20260506022403 13 292 1.6 3.2 0.00 0.00 0.00 78 1015.8
20260506022317 13 290 1.6 3.2 0.00 0.00 0.00 78 1015.8
20260506022116 13 286 1.6 3.2 0.00 0.00 0.00 78 1015.8
20260506022003 13 285 1.6 3.2 0.00 0.00 0.00 78 1015.7
20260506021803 13 279 1.6 4.8 0.00 0.00 0.00 78 1015.8
20260506021717 13 281 1.6 4.8 0.00 0.00 0.00 78 1015.8
20260506021703 13 282 1.6 4.8 0.00 0.00 0.00 78 1015.8
20260506021603 13 284 1.6 4.8 0.00 0.00 0.00 78 1015.8
20260506021403 13 285 1.6 4.8 0.00 0.00 0.00 78 1015.8
20260506021303 13 287 1.6 4.8 0.00 0.00 0.00 78 1015.8
20260506021203 13 287 1.6 4.8 0.00 0.00 0.00 78 1015.8
20260506021104 13 287 1.6 4.8 0.00 0.00 0.00 78 1015.8
20260506020904 13 288 1.6 4.8 0.00 0.00 0.00 78 1015.9
20260506020803 13 290 1.6 3.2 0.00 0.00 0.00 78 1016.0
20260506020719 13 287 1.6 3.2 0.00 0.00 0.00 78 1015.9
20260506020704 13 286 1.6 3.2 0.00 0.00 0.00 78 1015.9
20260506020603 13 283 1.6 4.8 0.00 0.00 0.00 78 1015.9
20260506020403 13 282 1.6 4.8 0.00 0.00 0.00 78 1015.9
20260506020304 13 283 1.6 4.8 0.00 0.00 0.00 78 1015.9
20260506020104 13 285 1.6 4.8 0.00 0.00 0.00 78 1015.9
20260506020004 13 285 1.6 4.8 0.00 0.00 0.00 78 1015.8
20260506015903 13 288 1.6 4.8 0.00 0.00 0.00 78 1015.9
20260506015803 13 293 1.6 4.8 0.00 0.00 0.00 78 1015.9
20260506015703 13 293 1.6 4.8 0.00 0.00 0.00 78 1015.9
20260506015603 13 296 1.6 4.8 0.00 0.00 0.00 78 1015.9
20260506015503 13 298 1.6 4.8 0.00 0.00 0.00 78 1015.9
20260506015403 13 300 1.6 4.8 0.00 0.00 0.00 77 1015.8
20260506015305 13 301 1.6 4.8 0.00 0.00 0.00 77 1016.0
20260506015203 13 299 1.6 4.8 0.00 0.00 0.00 77 1015.8
20260506015103 13 298 1.6 4.8 0.00 0.00 0.00 77 1015.9
20260506015003 13 297 1.6 4.8 0.00 0.00 0.00 77 1015.8
20260506014903 13 294 1.6 4.8 0.00 0.00 0.00 77 1016.0
20260506014818 13 290 1.6 4.8 0.00 0.00 0.00 78 1015.8
20260506014803 13 288 1.6 4.8 0.00 0.00 0.00 78 1015.8
20260506014703 13 284 1.6 4.8 0.00 0.00 0.00 78 1015.8
20260506014503 13 285 1.6 4.8 0.00 0.00 0.00 77 1015.8
20260506014403 13 284 1.6 4.8 0.00 0.00 0.00 77 1015.8
20260506014303 13 281 1.6 4.8 0.00 0.00 0.00 78 1015.8
20260506014203 13 280 1.6 4.8 0.00 0.00 0.00 78 1015.8
20260506014104 13 282 1.6 4.8 0.00 0.00 0.00 78 1015.9
20260506014003 13 285 1.6 4.8 0.00 0.00 0.00 78 1015.9
20260506013903 13 286 1.6 4.8 0.00 0.00 0.00 78 1015.9
20260506013803 13 288 3.2 4.8 0.00 0.00 0.00 78 1015.9
20260506013703 13 291 3.2 4.8 0.00 0.00 0.00 78 1015.9
20260506013603 13 291 3.2 4.8 0.00 0.00 0.00 78 1015.9
20260506013503 13 290 3.2 4.8 0.00 0.00 0.00 78 1015.9
20260506013403 13 290 3.2 4.8 0.00 0.00 0.00 78 1015.9
20260506013304 13 292 3.2 4.8 0.00 0.00 0.00 78 1015.8
20260506013203 13 294 3.2 4.8 0.00 0.00 0.00 78 1015.9
20260506013103 13 295 3.2 4.8 0.00 0.00 0.00 78 1015.8
20260506013003 13 295 3.2 4.8 0.00 0.00 0.00 78 1015.9
20260506012903 13 296 3.2 4.8 0.00 0.00 0.00 78 1015.9
20260506012818 13 299 3.2 4.8 0.00 0.00 0.00 78 1015.8
20260506012803 13 299 1.6 4.8 0.00 0.00 0.00 78 1015.9
20260506012703 13 300 1.6 4.8 0.00 0.00 0.00 78 1015.8
20260506012503 13 300 1.6 4.8 0.00 0.00 0.00 78 1015.9
20260506012418 13 299 1.6 4.8 0.00 0.00 0.00 78 1015.8
20260506012403 13 298 1.6 4.8 0.00 0.00 0.00 78 1015.8
20260506012317 13 297 1.6 4.8 0.00 0.00 0.00 78 1015.8
20260506012307 13 296 1.6 4.8 0.00 0.00 0.00 78 1015.8
20260506012003 13 287 1.6 4.8 0.00 0.00 0.00 78 1015.9
20260506011903 13 289 1.6 4.8 0.00 0.00 0.00 78 1015.9
20260506011803 13 291 1.6 4.8 0.00 0.00 0.00 78 1015.9
20260506011703 13 295 1.6 4.8 0.00 0.00 0.00 79 1015.8
20260506011603 13 298 1.6 4.8 0.00 0.00 0.00 79 1015.9
20260506011503 13 301 1.6 4.8 0.00 0.00 0.00 78 1016.0
20260506011403 13 305 1.6 4.8 0.00 0.00 0.00 78 1015.9
20260506011317 13 307 1.6 4.8 0.00 0.00 0.00 78 1015.9
20260506011303 13 308 1.6 4.8 0.00 0.00 0.00 78 1015.9
20260506011203 13 314 1.6 4.8 0.00 0.00 0.00 78 1015.9
20260506011003 13 327 1.6 3.2 0.00 0.00 0.00 78 1015.9
20260506010903 13 326 1.6 4.8 0.00 0.00 0.00 78 1015.9
20260506010818 13 324 1.6 4.8 0.00 0.00 0.00 78 1015.9
20260506010803 13 324 1.6 4.8 0.00 0.00 0.00 79 1015.9
20260506010703 13 323 1.6 4.8 0.00 0.00 0.00 79 1015.9
20260506010503 13 320 1.6 4.8 0.00 0.00 0.00 79 1015.9
20260506010403 13 319 1.6 4.8 0.00 0.00 0.00 78 1015.9
20260506010304 13 320 1.6 4.8 0.00 0.00 0.00 78 1015.9
20260506010203 13 315 1.6 4.8 0.00 0.00 0.00 78 1015.9
20260506010105 13 311 3.2 4.8 0.00 0.00 0.00 78 1015.9
20260506010004 13 306 1.6 4.8 0.00 0.00 0.00 78 1015.9
20260506005904 13 304 1.6 4.8 0.00 0.00 0.00 78 1015.9
20260506005803 13 301 1.6 4.8 0.00 0.00 0.00 78 1015.9
20260506005703 13 299 1.6 4.8 0.00 0.00 0.00 78 1015.9
20260506005603 13 296 1.6 4.8 0.00 0.00 0.00 78 1015.8
20260506005503 13 295 1.6 4.8 0.00 0.00 0.00 78 1015.8
20260506005403 13 294 1.6 4.8 0.00 0.00 0.00 78 1015.8
20260506005305 13 291 1.6 4.8 0.00 0.00 0.00 78 1015.8
20260506005219 13 292 1.6 4.8 0.00 0.00 0.00 78 1015.9
20260506005203 13 293 1.6 4.8 0.00 0.00 0.00 78 1015.9
20260506005103 13 294 1.6 4.8 0.00 0.00 0.00 78 1015.8
20260506005017 13 295 1.6 4.8 0.00 0.00 0.00 78 1015.8
20260506004917 13 296 1.6 4.8 0.00 0.00 0.00 78 1015.8
20260506004903 13 297 1.6 4.8 0.00 0.00 0.00 78 1015.9
20260506004718 13 300 1.6 6.4 0.00 0.00 0.00 78 1015.8
20260506004604 13 302 1.6 6.4 0.00 0.00 0.00 78 1015.8
20260506004303 13 307 1.6 6.4 0.00 0.00 0.00 78 1015.9
20260506004203 13 308 1.6 6.4 0.00 0.00 0.00 78 1015.8
20260506004103 13 308 1.6 6.4 0.00 0.00 0.00 78 1015.9
20260506003903 13 307 1.6 6.4 0.00 0.00 0.00 78 1015.9
20260506003803 13 307 1.6 6.4 0.00 0.00 0.00 78 1015.8
20260506003704 13 307 1.6 4.8 0.00 0.00 0.00 78 1015.9
20260506003603 13 307 1.6 4.8 0.00 0.00 0.00 78 1015.9
20260506003517 13 306 1.6 4.8 0.00 0.00 0.00 78 1015.8
20260506003503 13 305 1.6 3.2 0.00 0.00 0.00 78 1015.9
20260506003403 13 302 1.6 3.2 0.00 0.00 0.00 78 1015.8
20260506003317 13 298 1.6 4.8 0.00 0.00 0.00 78 1016.0
20260506003203 13 299 1.6 6.4 0.00 0.00 0.00 78 1015.9
20260506003003 13 295 1.6 6.4 0.00 0.00 0.00 78 1015.9
20260506002903 13 292 1.6 6.4 0.00 0.00 0.00 78 1015.9
20260506002803 13 291 3.2 6.4 0.00 0.00 0.00 78 1015.9
20260506002703 13 293 3.2 6.4 0.00 0.00 0.00 77 1015.9
20260506002616 13 294 3.2 6.4 0.00 0.00 0.00 77 1015.9
20260506002603 13 295 3.2 6.4 0.00 0.00 0.00 77 1015.9
20260506002503 13 297 3.2 6.4 0.00 0.00 0.00 77 1015.9
20260506002306 13 294 1.6 6.4 0.00 0.00 0.00 77 1016.0
20260506002203 13 294 1.6 4.8 0.00 0.00 0.00 77 1016.0
20260506002104 13 297 1.6 4.8 0.00 0.00 0.00 77 1015.9
20260506002003 13 302 1.6 4.8 0.00 0.00 0.00 77 1015.9
20260506001903 14 306 1.6 4.8 0.00 0.00 0.00 77 1015.9
20260506001803 14 308 1.6 4.8 0.00 0.00 0.00 77 1015.9
20260506001703 14 306 1.6 4.8 0.00 0.00 0.00 77 1015.9
20260506001603 14 304 1.6 4.8 0.00 0.00 0.00 77 1015.9
20260506001503 14 304 1.6 4.8 0.00 0.00 0.00 77 1015.9
20260506001403 14 309 1.6 4.8 0.00 0.00 0.00 77 1015.8
20260506001303 14 313 1.6 4.8 0.00 0.00 0.00 77 1015.8
20260506001203 14 312 1.6 4.8 0.00 0.00 0.00 77 1015.9
20260506001103 14 310 1.6 4.8 0.00 0.00 0.00 78 1015.9
20260506001003 14 309 1.6 4.8 0.00 0.00 0.00 77 1015.8
20260506000903 14 310 3.2 4.8 0.00 0.00 0.00 77 1015.9
20260506000803 14 311 3.2 4.8 0.00 0.00 0.00 77 1016.0
20260506000703 14 309 3.2 4.8 0.00 0.00 0.00 77 1016.0
20260506000603 14 307 3.2 4.8 0.00 0.00 0.00 77 1016.0
20260506000503 14 306 1.6 4.8 0.00 0.00 0.00 77 1016.0
20260506000403 14 305 1.6 4.8 0.00 0.00 0.00 77 1015.9
20260506000303 14 302 1.6 4.8 0.00 0.00 0.00 77 1016.1
20260506000204 14 303 1.6 4.8 0.00 0.00 0.00 77 1016.1
20260506000103 14 307 1.6 4.8 0.00 0.00 0.00 77 1016.1
20260506000005 14 308 1.6 4.8 0.00 0.00 0.00 77 1016.1
20260505235904 14 306 1.6 4.8 0.00 0.00 0.00 77 1016.0
20260505235803 14 304 3.2 4.8 0.00 0.00 0.00 77 1016.0
20260505235703 14 305 3.2 4.8 0.00 0.00 0.00 77 1016.0
20260505235603 14 307 3.2 4.8 0.00 0.00 0.00 77 1016.0
20260505235503 14 307 3.2 4.8 0.00 0.00 0.00 77 1016.0
20260505235403 14 306 3.2 4.8 0.00 0.00 0.00 77 1016.0
20260505235305 14 308 3.2 4.8 0.00 0.00 0.00 77 1016.0
20260505235203 14 307 3.2 4.8 0.00 0.00 0.00 77 1016.0
20260505235103 14 305 3.2 4.8 0.00 0.00 0.00 77 1016.1
20260505235003 14 303 3.2 4.8 0.00 0.00 0.00 77 1016.0
20260505234804 14 304 3.2 6.4 0.00 0.00 0.00 77 1016.1
20260505234703 14 306 3.2 6.4 0.00 0.00 0.00 77 1016.0
20260505234603 14 305 3.2 6.4 0.00 0.00 0.00 77 1016.0
20260505234503 14 305 3.2 6.4 0.00 0.00 0.00 77 1016.1
20260505234403 14 305 3.2 6.4 0.00 0.00 0.00 77 1016.1
20260505234303 14 304 3.2 6.4 0.00 0.00 0.00 77 1016.1
20260505234203 14 302 3.2 6.4 0.00 0.00 0.00 76 1016.2
20260505234117 14 301 3.2 6.4 0.00 0.00 0.00 76 1016.1
20260505234103 14 300 3.2 6.4 0.00 0.00 0.00 76 1016.1
20260505234005 14 298 3.2 6.4 0.00 0.00 0.00 77 1016.1
20260505233803 14 289 3.2 6.4 0.00 0.00 0.00 77 1016.1
20260505233703 14 285 3.2 6.4 0.00 0.00 0.00 77 1016.2
20260505233603 14 283 3.2 6.4 0.00 0.00 0.00 77 1016.2
20260505233503 14 283 3.2 6.4 0.00 0.00 0.00 77 1016.2
20260505233404 14 282 3.2 6.4 0.00 0.00 0.00 77 1016.1
20260505233303 14 283 3.2 6.4 0.00 0.00 0.00 77 1016.1
20260505233103 14 291 3.2 6.4 0.00 0.00 0.00 77 1016.1
20260505233003 14 293 3.2 4.8 0.00 0.00 0.00 77 1016.1
20260505232903 14 296 3.2 4.8 0.00 0.00 0.00 77 1016.2
20260505232803 14 302 3.2 11.3 0.00 0.00 0.00 77 1016.2
20260505232705 14 304 3.2 11.3 0.00 0.00 0.00 77 1016.1
20260505232603 14 309 3.2 11.3 0.00 0.00 0.00 77 1016.1
20260505232517 14 308 3.2 11.3 0.00 0.00 0.00 77 1016.1
20260505232503 14 309 3.2 11.3 0.00 0.00 0.00 77 1016.2
20260505232403 14 311 3.2 11.3 0.00 0.00 0.00 77 1016.1
20260505232203 14 310 3.2 11.3 0.00 0.00 0.00 77 1016.2
20260505232103 14 308 3.2 11.3 0.00 0.00 0.00 77 1016.2
20260505232003 14 309 3.2 11.3 0.00 0.00 0.00 77 1016.1
20260505231905 14 309 3.2 11.3 0.00 0.00 0.00 76 1016.2
20260505231720 14 303 3.2 8.0 0.00 0.00 0.00 76 1016.1
20260505231703 14 303 3.2 8.0 0.00 0.00 0.00 76 1016.2
20260505231603 14 299 3.2 6.4 0.00 0.00 0.00 77 1016.1
20260505231403 14 293 3.2 6.4 0.00 0.00 0.00 77 1016.2
20260505231303 14 289 3.2 6.4 0.00 0.00 0.00 77 1016.2
20260505231203 14 289 3.2 6.4 0.00 0.00 0.00 77 1016.2
20260505231105 14 287 3.2 6.4 0.00 0.00 0.00 77 1016.2
20260505231018 14 286 3.2 6.4 0.00 0.00 0.00 77 1016.2
20260505231003 14 284 3.2 6.4 0.00 0.00 0.00 76 1016.2
20260505230918 14 288 3.2 6.4 0.00 0.00 0.00 76 1016.2
20260505230903 14 289 3.2 6.4 0.00 0.00 0.00 76 1016.2
20260505230618 14 293 3.2 6.4 0.00 0.00 0.00 76 1016.2
20260505230603 15 294 3.2 6.4 0.00 0.00 0.00 76 1016.2
20260505230503 15 294 3.2 4.8 0.00 0.00 0.00 76 1016.1
20260505230303 15 295 3.2 4.8 0.00 0.00 0.00 76 1016.2
20260505230203 15 296 3.2 6.4 0.00 0.00 0.00 76 1016.3
20260505230003 15 294 3.2 6.4 0.00 0.00 0.00 76 1016.2
20260505225918 15 291 3.2 6.4 0.00 0.00 0.00 76 1016.3
20260505225904 15 290 3.2 6.4 0.00 0.00 0.00 76 1016.3
20260505225803 15 285 3.2 6.4 0.00 0.00 0.00 76 1016.3
20260505225603 15 283 3.2 6.4 0.00 0.00 0.00 76 1016.3
20260505225503 15 284 3.2 6.4 0.00 0.00 0.00 76 1016.3
20260505225403 15 286 3.2 6.4 0.00 0.00 0.00 76 1016.2
20260505225305 15 285 3.2 6.4 0.00 0.00 0.00 76 1016.3
20260505225203 15 285 3.2 6.4 0.00 0.00 0.00 76 1016.3
20260505225103 15 289 3.2 6.4 0.00 0.00 0.00 76 1016.2
20260505225017 15 289 3.2 6.4 0.00 0.00 0.00 76 1016.3
20260505225003 15 290 3.2 6.4 0.00 0.00 0.00 76 1016.4
20260505224904 15 292 3.2 6.4 0.00 0.00 0.00 76 1016.3
20260505224703 15 303 3.2 6.4 0.00 0.00 0.00 76 1016.3
20260505224603 15 302 3.2 6.4 0.00 0.00 0.00 76 1016.3
20260505224503 15 300 3.2 6.4 0.00 0.00 0.00 76 1016.3
20260505224403 15 295 3.2 6.4 0.00 0.00 0.00 76 1016.3
20260505224303 15 296 3.2 6.4 0.00 0.00 0.00 76 1016.3
20260505224203 15 294 3.2 6.4 0.00 0.00 0.00 76 1016.3
20260505224103 15 291 3.2 6.4 0.00 0.00 0.00 76 1016.3
20260505224004 15 292 3.2 6.4 0.00 0.00 0.00 76 1016.3
20260505223903 15 291 3.2 6.4 0.00 0.00 0.00 76 1016.3
20260505223803 15 289 3.2 6.4 0.00 0.00 0.00 76 1016.3
20260505223703 15 285 3.2 6.4 0.00 0.00 0.00 76 1016.2
20260505223603 15 286 3.2 6.4 0.00 0.00 0.00 76 1016.3
20260505223503 15 285 3.2 6.4 0.00 0.00 0.00 76 1016.4
20260505223303 15 288 3.2 6.4 0.00 0.00 0.00 76 1016.4
20260505223203 15 288 3.2 6.4 0.00 0.00 0.00 77 1016.3
20260505223103 15 286 3.2 6.4 0.00 0.00 0.00 77 1016.4
20260505223003 15 283 3.2 6.4 0.00 0.00 0.00 76 1016.3
20260505222903 15 284 3.2 6.4 0.00 0.00 0.00 77 1016.3
20260505222803 15 279 3.2 6.4 0.00 0.00 0.00 77 1016.4
20260505222703 15 278 3.2 6.4 0.00 0.00 0.00 77 1016.3
20260505222603 15 276 3.2 6.4 0.00 0.00 0.00 77 1016.4
20260505222503 15 272 3.2 8.0 0.00 0.00 0.00 76 1016.3
20260505222403 15 273 3.2 8.0 0.00 0.00 0.00 76 1016.4
20260505222305 15 272 3.2 8.0 0.00 0.00 0.00 76 1016.4
20260505222203 15 272 3.2 8.0 0.00 0.00 0.00 76 1016.3
20260505222103 15 275 3.2 8.0 0.00 0.00 0.00 76 1016.4
20260505222004 15 276 3.2 8.0 0.00 0.00 0.00 76 1016.4
20260505221903 15 275 3.2 8.0 0.00 0.00 0.00 76 1016.4
20260505221803 15 279 3.2 8.0 0.00 0.00 0.00 76 1016.3
20260505221603 15 284 3.2 8.0 0.00 0.00 0.00 76 1016.4
20260505221518 15 286 3.2 8.0 0.00 0.00 0.00 76 1016.4
20260505221503 15 288 3.2 8.0 0.00 0.00 0.00 76 1016.4
20260505221403 15 288 3.2 8.0 0.00 0.00 0.00 76 1016.5
20260505221203 15 289 3.2 9.7 0.00 0.00 0.00 76 1016.4
20260505221117 15 288 3.2 9.7 0.00 0.00 0.00 76 1016.5
20260505221103 15 289 3.2 9.7 0.00 0.00 0.00 76 1016.5
20260505221003 15 290 3.2 9.7 0.00 0.00 0.00 76 1016.5
20260505220803 15 286 3.2 9.7 0.00 0.00 0.00 76 1016.5
20260505220703 15 287 3.2 9.7 0.00 0.00 0.00 76 1016.4
20260505220603 15 285 3.2 9.7 0.00 0.00 0.00 76 1016.5
20260505220503 15 286 3.2 9.7 0.00 0.00 0.00 76 1016.5
20260505220403 15 283 4.8 9.7 0.00 0.00 0.00 76 1016.4
20260505220203 15 280 3.2 6.4 0.00 0.00 0.00 76 1016.5
20260505220117 15 278 3.2 6.4 0.00 0.00 0.00 76 1016.4
20260505220104 15 277 4.8 6.4 0.00 0.00 0.00 76 1016.4
20260505220004 15 274 4.8 6.4 0.00 0.00 0.00 76 1016.3
20260505215803 15 274 4.8 9.7 0.00 0.00 0.00 77 1016.4
20260505215703 15 274 4.8 9.7 0.00 0.00 0.00 76 1016.5
20260505215603 15 275 4.8 9.7 0.00 0.00 0.00 76 1016.4
20260505215518 15 276 4.8 9.7 0.00 0.00 0.00 76 1016.4
20260505215503 15 275 4.8 9.7 0.00 0.00 0.00 76 1016.4
20260505215403 15 279 4.8 9.7 0.00 0.00 0.00 76 1016.4
20260505215317 15 279 4.8 9.7 0.00 0.00 0.00 76 1016.4
20260505215203 15 278 4.8 9.7 0.00 0.00 0.00 76 1016.4
20260505215117 15 279 4.8 9.7 0.00 0.00 0.00 75 1016.4
20260505215003 15 279 4.8 9.7 0.00 0.00 0.00 75 1016.4
20260505214918 15 279 4.8 9.7 0.00 0.00 0.00 75 1016.4
20260505214803 15 280 4.8 9.7 0.00 0.00 0.00 76 1016.4
20260505214618 15 278 3.2 9.7 0.00 0.00 0.00 76 1016.4
20260505214604 15 278 3.2 9.7 0.00 0.00 0.00 76 1016.4
20260505214503 15 277 3.2 9.7 0.00 0.00 0.00 76 1016.4
20260505214417 15 277 3.2 9.7 0.00 0.00 0.00 76 1016.4
20260505214317 15 277 3.2 9.7 0.00 0.00 0.00 77 1016.3
20260505214304 15 277 4.8 9.7 0.00 0.00 0.00 76 1016.3
20260505214003 15 283 4.8 9.7 0.00 0.00 0.00 76 1016.4
20260505213903 15 283 3.2 9.7 0.00 0.00 0.00 76 1016.4
20260505213803 15 282 3.2 9.7 0.00 0.00 0.00 76 1016.4
20260505213703 15 281 3.2 8.0 0.00 0.00 0.00 76 1016.4
20260505213603 15 282 4.8 8.0 0.00 0.00 0.00 75 1016.4
20260505213503 15 281 3.2 8.0 0.00 0.00 0.00 75 1016.5
20260505213403 15 279 3.2 8.0 0.00 0.00 0.00 75 1016.4
20260505213303 15 280 3.2 8.0 0.00 0.00 0.00 75 1016.4
20260505213203 15 279 3.2 8.0 0.00 0.00 0.00 75 1016.5
20260505213103 15 276 3.2 8.0 0.00 0.00 0.00 75 1016.5
20260505213017 15 275 3.2 8.0 0.00 0.00 0.00 76 1016.5
20260505213003 15 275 3.2 6.4 0.00 0.00 0.00 76 1016.4
20260505212903 15 275 3.2 9.7 0.00 0.00 0.00 76 1016.4
20260505212703 15 282 4.8 9.7 0.00 0.00 0.00 75 1016.4
20260505212603 15 283 4.8 9.7 0.00 0.00 0.00 75 1016.4
20260505212518 15 286 4.8 9.7 0.00 0.00 0.00 75 1016.5
20260505212503 15 287 4.8 9.7 0.00 0.00 0.00 76 1016.5
20260505212403 15 291 4.8 9.7 0.00 0.00 0.00 75 1016.4
20260505212218 15 293 4.8 9.7 0.00 0.00 0.00 75 1016.4
20260505212203 15 293 4.8 9.7 0.00 0.00 0.00 75 1016.4
20260505212103 15 294 4.8 9.7 0.00 0.00 0.00 74 1016.4
20260505211903 15 297 4.8 8.0 0.00 0.00 0.00 75 1016.4
20260505211803 15 300 3.2 8.0 0.00 0.00 0.00 75 1016.4
20260505211703 15 298 4.8 8.0 0.00 0.00 0.00 75 1016.3
20260505211603 15 299 4.8 8.0 0.00 0.00 0.00 75 1016.3
20260505211504 15 300 4.8 8.0 0.00 0.00 0.00 75 1016.4
20260505211403 15 298 4.8 8.0 0.00 0.00 0.00 75 1016.4
20260505211317 15 298 4.8 8.0 0.00 0.00 0.00 75 1016.3
20260505211303 15 297 3.2 8.0 0.00 0.00 0.00 75 1016.3
20260505211003 15 291 3.2 9.7 0.00 0.00 0.00 75 1016.3
20260505210903 15 293 3.2 9.7 0.00 0.00 0.00 75 1016.3
20260505210803 15 289 3.2 9.7 0.00 0.00 0.00 75 1016.3
20260505210703 15 288 3.2 9.7 0.00 0.00 0.00 75 1016.3
20260505210603 15 284 3.2 9.7 0.00 0.00 0.00 75 1016.3
20260505210503 15 280 3.2 9.7 0.00 0.00 0.00 75 1016.4
20260505210403 15 282 3.2 9.7 0.00 0.00 0.00 75 1016.3
20260505210303 15 281 3.2 9.7 0.00 0.00 0.00 76 1016.2
20260505210204 15 283 3.2 9.7 0.00 0.00 0.00 75 1016.3
20260505210103 15 283 3.2 9.7 0.00 0.00 0.00 76 1016.2
20260505210003 15 285 3.2 6.4 0.00 0.00 0.00 76 1016.2
20260505205903 15 284 3.2 6.4 0.00 0.00 0.00 76 1016.2
20260505205803 15 285 3.2 6.4 0.00 0.00 0.00 76 1016.2
20260505205703 15 285 3.2 6.4 0.00 0.00 0.00 76 1016.3
20260505205604 15 288 3.2 6.4 0.00 0.00 0.00 76 1016.3
20260505205404 15 289 3.2 6.4 0.00 0.00 0.00 76 1016.4
20260505205305 15 288 3.2 6.4 0.00 0.00 0.00 76 1016.3
20260505205103 15 289 3.2 9.7 0.00 0.00 0.00 76 1016.3
20260505205003 15 286 3.2 9.7 0.00 0.00 0.00 76 1016.4
20260505204903 15 286 3.2 9.7 0.00 0.00 0.00 76 1016.4
20260505204803 15 285 3.2 9.7 0.00 0.00 0.00 76 1016.4
20260505204703 15 284 3.2 9.7 0.00 0.00 0.00 77 1016.5
20260505204603 15 283 3.2 9.7 0.00 0.00 0.00 76 1016.5
20260505204503 15 278 3.2 9.7 0.00 0.00 0.00 76 1016.4
20260505204404 15 277 3.2 9.7 0.00 0.00 0.00 76 1016.5
20260505204303 15 280 3.2 9.7 0.00 0.00 0.00 76 1016.5
20260505204103 15 280 3.2 9.7 0.00 0.00 0.00 76 1016.7
20260505204004 15 280 3.2 9.7 0.00 0.00 0.00 76 1016.5
20260505203917 15 280 3.2 9.7 0.00 0.00 0.00 76 1016.6
20260505203903 15 280 3.2 9.7 0.00 0.00 0.00 76 1016.6
20260505203803 15 281 3.2 9.7 0.00 0.00 0.00 76 1016.7
20260505203603 15 282 3.2 6.4 0.00 0.00 0.00 77 1016.7
20260505203503 15 285 3.2 6.4 0.00 0.00 0.00 77 1016.7
20260505203405 15 286 3.2 6.4 0.00 0.00 0.00 76 1016.7
20260505203303 15 285 3.2 6.4 0.00 0.00 0.00 76 1016.6
20260505203103 15 286 3.2 6.4 0.00 0.00 0.00 76 1016.6
20260505203003 15 285 3.2 6.4 0.00 0.00 0.00 77 1016.7
20260505202903 15 288 3.2 6.4 0.00 0.00 0.00 76 1016.6
20260505202803 15 286 3.2 6.4 0.00 0.00 0.00 76 1016.6
20260505202703 15 286 3.2 6.4 0.00 0.00 0.00 76 1016.7
20260505202617 15 289 3.2 6.4 0.00 0.00 0.00 76 1016.7
20260505202603 15 291 3.2 6.4 0.00 0.00 0.00 76 1016.7
20260505202503 15 293 3.2 6.4 0.00 0.00 0.00 76 1016.6
20260505202317 15 292 3.2 6.4 0.00 0.00 0.00 77 1016.6
20260505202306 15 291 3.2 6.4 0.00 0.00 0.00 77 1016.6
20260505202203 15 287 3.2 6.4 0.00 0.00 0.00 77 1016.6
20260505202004 15 288 3.2 8.0 0.00 0.00 0.00 77 1016.6
20260505201903 15 286 3.2 8.0 0.00 0.00 0.00 77 1016.6
20260505201603 15 296 3.2 8.0 0.00 0.00 0.00 78 1016.5
20260505201503 15 298 3.2 8.0 0.00 0.00 0.00 77 1016.6
20260505201403 15 301 3.2 8.0 0.00 0.00 0.00 77 1016.5
20260505201303 15 302 3.2 8.0 0.00 0.00 0.00 77 1016.6
20260505201203 15 303 3.2 8.0 0.00 0.00 0.00 77 1016.5
20260505201003 15 298 3.2 8.0 0.00 0.00 0.00 76 1016.5
20260505200903 15 298 3.2 8.0 0.00 0.00 0.00 76 1016.4
20260505200818 15 297 3.2 8.0 0.00 0.00 0.00 76 1016.5
20260505200803 15 296 3.2 8.0 0.00 0.00 0.00 76 1016.5
20260505200703 15 293 3.2 8.0 0.00 0.00 0.00 76 1016.5
20260505200503 15 284 3.2 4.8 0.00 0.00 0.00 77 1016.5
20260505200403 15 284 3.2 6.4 0.00 0.00 0.00 77 1016.5
20260505200303 15 288 3.2 6.4 0.00 0.00 0.00 77 1016.5
20260505200203 15 289 3.2 6.4 0.00 0.00 0.00 77 1016.5
20260505200118 15 289 3.2 6.4 0.00 0.00 0.00 77 1016.5
20260505200005 15 294 3.2 6.4 0.00 0.00 0.00 77 1016.5
20260505195818 15 292 3.2 6.4 0.00 0.00 0.00 76 1016.4
20260505195803 15 293 3.2 6.4 0.00 0.00 0.00 76 1016.4
20260505195718 15 293 3.2 6.4 0.00 0.00 0.00 76 1016.5
20260505195704 15 293 3.2 6.4 0.00 0.00 0.00 76 1016.4
20260505195403 15 292 3.2 6.4 0.00 0.00 0.00 76 1016.5
20260505195305 15 289 3.2 6.4 0.00 0.00 0.00 76 1016.4
20260505195203 15 286 3.2 6.4 0.00 0.00 0.00 76 1016.4
20260505195103 15 285 3.2 6.4 0.00 0.00 0.00 77 1016.4
20260505195003 15 283 3.2 6.4 0.00 0.00 0.00 77 1016.4
20260505194903 15 288 3.2 6.4 0.00 0.00 0.00 77 1016.5
20260505194803 15 285 3.2 6.4 0.00 0.00 0.00 76 1016.3
20260505194718 15 283 3.2 6.4 0.00 0.00 0.00 76 1016.4
20260505194703 15 283 3.2 6.4 0.00 0.00 0.00 76 1016.3
20260505194603 15 279 3.2 6.4 0.00 0.00 0.00 77 1016.4
20260505194418 15 277 3.2 6.4 0.00 0.00 0.00 76 1016.3
20260505194403 15 276 3.2 6.4 0.00 0.00 0.00 76 1016.3
20260505194303 15 275 3.2 6.4 0.00 0.00 0.00 76 1016.4
20260505194103 15 279 3.2 6.4 0.00 0.00 0.00 77 1016.4
20260505194016 15 283 3.2 8.0 0.00 0.00 0.00 77 1016.4
20260505194003 15 284 3.2 8.0 0.00 0.00 0.00 77 1016.4
20260505193903 15 286 3.2 8.0 0.00 0.00 0.00 77 1016.4
20260505193703 15 292 3.2 8.0 0.00 0.00 0.00 77 1016.4
20260505193603 15 299 3.2 8.0 0.00 0.00 0.00 77 1016.3